Observation data for Big Lake on 11/16/2019      Previous  Date       Current Mesonet Observations  Soil Data  Daily Summary Page  Observations in Plain Language
KBI1 160600Z 18008KT 04/M01 A3023 RMK A01 T00411007  RH  071%=      5-min Rain = 0
KBI1 160601Z 18008KT 04/M01 A3023 RMK A01 T00421007  RH  071%=      5-min Rain = 0
KBI1 160602Z 18008KT 04/M01 A3023 RMK A01 T00411007  RH  071%=      5-min Rain = 0
KBI1 160603Z 17008KT 04/M01 A3023 RMK A01 T00411007  RH  071%=      5-min Rain = 0
KBI1 160604Z 17008KT 04/M01 A3023 RMK A01 T00411007  RH  071%=      5-min Rain = 0
KBI1 160605Z 18008KT 04/M01 A3023 RMK A01 T00411006  RH  071%=      5-min Rain = 0
KBI1 160606Z 17008KT 04/M01 A3023 RMK A01 T00411006  RH  071%=      5-min Rain = 0
KBI1 160607Z 18008KT 04/M01 A3023 RMK A01 T00411006  RH  071%=      5-min Rain = 0
KBI1 160608Z 17008KT 04/M01 A3023 RMK A01 T00421006  RH  071%=      5-min Rain = 0
KBI1 160609Z 17008KT 04/M01 A3023 RMK A01 T00421006  RH  071%=      5-min Rain = 0
KBI1 160610Z 17008KT 04/M01 A3023 RMK A01 T00421006  RH  071%=      5-min Rain = 0
KBI1 160611Z 17008KT 04/M01 A3023 RMK A01 T00421007  RH  070%=      5-min Rain = 0
KBI1 160612Z 17008KT 04/M01 A3023 RMK A01 T00431006  RH  070%=      5-min Rain = 0
KBI1 160613Z 17008KT 04/M01 A3023 RMK A01 T00431006  RH  070%=      5-min Rain = 0
KBI1 160614Z 17008KT 04/M01 A3023 RMK A01 T00431007  RH  070%=      5-min Rain = 0
KBI1 160615Z 17008KT 04/M01 A3023 RMK A01 T00431006  RH  070%=      5-min Rain = 0
KBI1 160616Z 17008KT 04/M01 A3023 RMK A01 T00441006  RH  070%=      5-min Rain = 0
KBI1 160617Z 17009KT 04/M01 A3023 RMK A01 T00441006  RH  070%=      5-min Rain = 0
KBI1 160618Z 17008KT 04/M01 A3023 RMK A01 T00441006  RH  070%=      5-min Rain = 0
KBI1 160619Z 17008KT 05/M01 A3023 RMK A01 T00451006  RH  070%=      5-min Rain = 0
KBI1 160620Z 17008KT 05/M01 A3023 RMK A01 T00451006  RH  069%=      5-min Rain = 0
KBI1 160621Z 17008KT 05/M01 A3023 RMK A01 T00451006  RH  069%=      5-min Rain = 0
KBI1 160622Z 17008KT 05/M01 A3023 RMK A01 T00451006  RH  069%=      5-min Rain = 0
KBI1 160623Z 17008KT 05/M01 A3023 RMK A01 T00451006  RH  069%=      5-min Rain = 0
KBI1 160624Z 17008KT 05/M01 A3022 RMK A01 T00461006  RH  069%=      5-min Rain = 0
KBI1 160625Z 17008KT 05/M01 A3022 RMK A01 T00461007  RH  069%=      5-min Rain = 0
KBI1 160626Z 17008KT 05/M01 A3022 RMK A01 T00461007  RH  069%=      5-min Rain = 0
KBI1 160627Z 17008KT 05/M01 A3022 RMK A01 T00461007  RH  069%=      5-min Rain = 0
KBI1 160628Z 17008KT 05/M01 A3022 RMK A01 T00461007  RH  069%=      5-min Rain = 0
KBI1 160629Z 17007KT 05/M01 A3022 RMK A01 T00461007  RH  068%=      5-min Rain = 0
KBI1 160630Z 17007KT 05/M01 A3022 RMK A01 T00461007  RH  068%=      5-min Rain = 0
KBI1 160631Z 17007KT 05/M01 A3022 RMK A01 T00461007  RH  068%=      5-min Rain = 0
KBI1 160632Z 17007KT 05/M01 A3022 RMK A01 T00461007  RH  068%=      5-min Rain = 0
KBI1 160633Z 17008KT 05/M01 A3022 RMK A01 T00461007  RH  068%=      5-min Rain = 0
KBI1 160634Z 17008KT 05/M01 A3022 RMK A01 T00461007  RH  068%=      5-min Rain = 0
KBI1 160635Z 17008KT 05/M01 A3022 RMK A01 T00461006  RH  069%=      5-min Rain = 0
KBI1 160636Z 17008KT 05/M01 A3022 RMK A01 T00461007  RH  069%=      5-min Rain = 0
KBI1 160637Z 17008KT 05/M01 A3022 RMK A01 T00471006  RH  068%=      5-min Rain = 0
KBI1 160638Z 17008KT 05/M01 A3022 RMK A01 T00471006  RH  068%=      5-min Rain = 0
KBI1 160639Z 17008KT 05/M01 A3022 RMK A01 T00471007  RH  068%=      5-min Rain = 0
KBI1 160640Z 17008KT 05/M01 A3022 RMK A01 T00471007  RH  068%=      5-min Rain = 0
KBI1 160641Z 17008KT 05/M01 A3022 RMK A01 T00471007  RH  068%=      5-min Rain = 0
KBI1 160642Z 17008KT 05/M01 A3022 RMK A01 T00471007  RH  068%=      5-min Rain = 0
KBI1 160643Z 17008KT 05/M01 A3022 RMK A01 T00471007  RH  068%=      5-min Rain = 0
KBI1 160644Z 17007KT 05/M01 A3022 RMK A01 T00471007  RH  068%=      5-min Rain = 0
KBI1 160645Z 17007KT 05/M01 A3022 RMK A01 T00471007  RH  068%=      5-min Rain = 0
KBI1 160646Z 17008KT 05/M01 A3022 RMK A01 T00471007  RH  068%=      5-min Rain = 0
KBI1 160647Z 17008KT 05/M01 A3022 RMK A01 T00471007  RH  068%=      5-min Rain = 0
KBI1 160648Z 17008KT 05/M01 A3022 RMK A01 T00471008  RH  068%=      5-min Rain = 0
KBI1 160649Z 17008KT 05/M01 A3022 RMK A01 T00471008  RH  068%=      5-min Rain = 0
KBI1 160650Z 17008KT 05/M01 A3022 RMK A01 T00471008  RH  068%=      5-min Rain = 0
KBI1 160651Z 17008KT 05/M01 A3022 RMK A01 T00471008  RH  068%=      5-min Rain = 0
KBI1 160652Z 17008KT 05/M01 A3022 RMK A01 T00471008  RH  068%=      5-min Rain = 0
KBI1 160653Z 17008KT 05/M01 A3021 RMK A01 T00471008  RH  068%=      5-min Rain = 0
KBI1 160654Z 17008KT 05/M01 A3021 RMK A01 T00471008  RH  068%=      5-min Rain = 0
KBI1 160655Z 17008KT 05/M01 A3021 RMK A01 T00471008  RH  068%=      5-min Rain = 0
KBI1 160656Z 17008KT 05/M01 A3021 RMK A01 T00471008  RH  068%=      5-min Rain = 0
KBI1 160657Z 17008KT 05/M01 A3021 RMK A01 T00471008  RH  068%=      5-min Rain = 0
KBI1 160658Z 17008KT 05/M01 A3021 RMK A01 T00471008  RH  068%=      5-min Rain = 0
KBI1 160659Z 17009KT 05/M01 A3021 RMK A01 T00461008  RH  068%=      5-min Rain = 0
KBI1 160700Z 17009KT 05/M01 A3021 RMK A01 T00461008  RH  068%=      5-min Rain = 0
KBI1 160701Z 17009KT 05/M01 A3021 RMK A01 T00461008  RH  068%=      5-min Rain = 0
KBI1 160702Z 16009KT 05/M01 A3021 RMK A01 T00461008  RH  068%=      5-min Rain = 0
KBI1 160703Z 16009KT 05/M01 A3021 RMK A01 T00471008  RH  068%=      5-min Rain = 0
KBI1 160704Z 16009KT 05/M01 A3021 RMK A01 T00471008  RH  068%=      5-min Rain = 0
KBI1 160705Z 16009KT 05/M01 A3021 RMK A01 T00471008  RH  067%=      5-min Rain = 0
KBI1 160706Z 16009KT 05/M01 A3021 RMK A01 T00471008  RH  067%=      5-min Rain = 0
KBI1 160707Z 17010KT 05/M01 A302 RMK A01 T00471008  RH  067%=      5-min Rain = 0
KBI1 160708Z 16010KT 05/M01 A302 RMK A01 T00481008  RH  067%=      5-min Rain = 0
KBI1 160709Z 16009KT 05/M01 A302 RMK A01 T00481008  RH  067%=      5-min Rain = 0
KBI1 160710Z 16010KT 05/M01 A302 RMK A01 T00481007  RH  067%=      5-min Rain = 0
KBI1 160711Z 16009KT 05/M01 A302 RMK A01 T00481008  RH  067%=      5-min Rain = 0
KBI1 160712Z 16010KT 05/M01 A302 RMK A01 T00481007  RH  067%=      5-min Rain = 0
KBI1 160713Z 16010KT 05/M01 A302 RMK A01 T00481007  RH  067%=      5-min Rain = 0
KBI1 160714Z 17010KT 05/M01 A302 RMK A01 T00481008  RH  067%=      5-min Rain = 0
KBI1 160715Z 17009KT 05/M01 A302 RMK A01 T00481008  RH  067%=      5-min Rain = 0
KBI1 160716Z 17010KT 05/M01 A302 RMK A01 T00481008  RH  067%=      5-min Rain = 0
KBI1 160717Z 16010KT 05/M01 A302 RMK A01 T00481008  RH  067%=      5-min Rain = 0
KBI1 160718Z 16010KT 05/M01 A302 RMK A01 T00481008  RH  067%=      5-min Rain = 0
KBI1 160719Z 16009KT 05/M01 A302 RMK A01 T00481007  RH  067%=      5-min Rain = 0
KBI1 160720Z 16010KT 05/M01 A302 RMK A01 T00481007  RH  067%=      5-min Rain = 0
KBI1 160721Z 16010KT 05/M01 A302 RMK A01 T00481007  RH  067%=      5-min Rain = 0
KBI1 160722Z 16009KT 05/M01 A302 RMK A01 T00481007  RH  067%=      5-min Rain = 0
KBI1 160723Z 16010KT 05/M01 A302 RMK A01 T00481007  RH  067%=      5-min Rain = 0
KBI1 160724Z 17009KT 05/M01 A302 RMK A01 T00491007  RH  067%=      5-min Rain = 0
KBI1 160725Z 17009KT 05/M01 A302 RMK A01 T00481007  RH  068%=      5-min Rain = 0
KBI1 160726Z 17009KT 05/M01 A302 RMK A01 T00481007  RH  068%=      5-min Rain = 0
KBI1 160727Z 17009KT 05/M01 A302 RMK A01 T00481007  RH  067%=      5-min Rain = 0
KBI1 160728Z 17009KT 05/M01 A302 RMK A01 T00481007  RH  068%=      5-min Rain = 0
KBI1 160729Z 16009KT 05/M01 A302 RMK A01 T00481006  RH  068%=      5-min Rain = 0
KBI1 160730Z 16008KT 05/M01 A302 RMK A01 T00481006  RH  068%=      5-min Rain = 0
KBI1 160731Z 17008KT 05/M01 A302 RMK A01 T00471006  RH  068%=      5-min Rain = 0
KBI1 160732Z 17009KT 05/M01 A302 RMK A01 T00471006  RH  068%=      5-min Rain = 0
KBI1 160733Z 17009KT 05/M01 A302 RMK A01 T00471006  RH  068%=      5-min Rain = 0
KBI1 160734Z 17008KT 05/M01 A302 RMK A01 T00471006  RH  068%=      5-min Rain = 0
KBI1 160735Z 17009KT 05/M01 A302 RMK A01 T00471006  RH  068%=      5-min Rain = 0
KBI1 160736Z 17008KT 05/M01 A302 RMK A01 T00471007  RH  068%=      5-min Rain = 0
KBI1 160737Z 17009KT 05/M01 A302 RMK A01 T00461007  RH  068%=      5-min Rain = 0
KBI1 160738Z 17008KT 05/M01 A302 RMK A01 T00461007  RH  069%=      5-min Rain = 0
KBI1 160739Z 17008KT 05/M01 A302 RMK A01 T00461007  RH  069%=      5-min Rain = 0
KBI1 160740Z 17008KT 05/M01 A302 RMK A01 T00451007  RH  069%=      5-min Rain = 0
KBI1 160741Z 17009KT 05/M01 A302 RMK A01 T00451007  RH  069%=      5-min Rain = 0
KBI1 160742Z 17008KT 04/M01 A302 RMK A01 T00441007  RH  069%=      5-min Rain = 0
KBI1 160743Z 17008KT 04/M01 A302 RMK A01 T00441006  RH  070%=      5-min Rain = 0
KBI1 160744Z 17007KT 04/M01 A302 RMK A01 T00441007  RH  070%=      5-min Rain = 0
KBI1 160745Z 17008KT 04/M01 A302 RMK A01 T00441007  RH  070%=      5-min Rain = 0
KBI1 160746Z 17007KT 04/M01 A302 RMK A01 T00431007  RH  070%=      5-min Rain = 0
KBI1 160747Z 17007KT 04/M01 A302 RMK A01 T00421007  RH  070%=      5-min Rain = 0
KBI1 160748Z 17008KT 04/M01 A302 RMK A01 T00421008  RH  070%=      5-min Rain = 0
KBI1 160749Z 18007KT 04/M01 A302 RMK A01 T00411008  RH  070%=      5-min Rain = 0
KBI1 160750Z 18008KT 04/M01 A302 RMK A01 T00401008  RH  071%=      5-min Rain = 0
KBI1 160751Z 18008KT 04/M01 A302 RMK A01 T00391008  RH  071%=      5-min Rain = 0
KBI1 160752Z 18008KT 04/M01 A302 RMK A01 T00391008  RH  071%=      5-min Rain = 0
KBI1 160753Z 18008KT 04/M01 A302 RMK A01 T00381009  RH  072%=      5-min Rain = 0
KBI1 160754Z 18008KT 04/M01 A302 RMK A01 T00371008  RH  072%=      5-min Rain = 0
KBI1 160755Z 18008KT 04/M01 A302 RMK A01 T00361009  RH  072%=      5-min Rain = 0
KBI1 160756Z 17008KT 04/M01 A302 RMK A01 T00361009  RH  073%=      5-min Rain = 0
KBI1 160757Z 17008KT 04/M01 A302 RMK A01 T00351009  RH  073%=      5-min Rain = 0
KBI1 160758Z 18008KT 04/M01 A302 RMK A01 T00351009  RH  073%=      5-min Rain = 0
KBI1 160759Z 18007KT 03/M01 A302 RMK A01 T00341009  RH  073%=      5-min Rain = 0
KBI1 160800Z 17007KT 03/M01 A302 RMK A01 T00331009  RH  074%=      5-min Rain = 0
KBI1 160801Z 17007KT 03/M01 A302 RMK A01 T00331009  RH  074%=      5-min Rain = 0
KBI1 160802Z 17007KT 03/M01 A302 RMK A01 T00321009  RH  074%=      5-min Rain = 0
KBI1 160803Z 17007KT 03/M01 A302 RMK A01 T00321009  RH  075%=      5-min Rain = 0
KBI1 160804Z 17007KT 03/M01 A302 RMK A01 T00321009  RH  075%=      5-min Rain = 0
KBI1 160805Z 17006KT 03/M01 A302 RMK A01 T00311009  RH  075%=      5-min Rain = 0
KBI1 160806Z 18006KT 03/M01 A302 RMK A01 T00311010  RH  075%=      5-min Rain = 0
KBI1 160807Z 18007KT 03/M01 A302 RMK A01 T00301010  RH  075%=      5-min Rain = 0
KBI1 160808Z 17007KT 03/M01 A302 RMK A01 T00291010  RH  075%=      5-min Rain = 0
KBI1 160809Z 17006KT 03/M01 A302 RMK A01 T00281010  RH  076%=      5-min Rain = 0
KBI1 160810Z 17006KT 03/M01 A302 RMK A01 T00281010  RH  076%=      5-min Rain = 0
KBI1 160811Z 17006KT 03/M01 A302 RMK A01 T00281010  RH  076%=      5-min Rain = 0
KBI1 160812Z 17006KT 03/M01 A302 RMK A01 T00281009  RH  077%=      5-min Rain = 0
KBI1 160813Z 17007KT 03/M01 A302 RMK A01 T00281009  RH  077%=      5-min Rain = 0
KBI1 160814Z 17006KT 03/M01 A302 RMK A01 T00281009  RH  077%=      5-min Rain = 0
KBI1 160815Z 17007KT 03/M01 A302 RMK A01 T00291008  RH  077%=      5-min Rain = 0
KBI1 160816Z 17006KT 03/M01 A302 RMK A01 T00291008  RH  077%=      5-min Rain = 0
KBI1 160817Z 17007KT 03/M01 A302 RMK A01 T00291008  RH  077%=      5-min Rain = 0
KBI1 160818Z 17007KT 03/M01 A302 RMK A01 T00301007  RH  076%=      5-min Rain = 0
KBI1 160819Z 17007KT 03/M01 A302 RMK A01 T00311007  RH  076%=      5-min Rain = 0
KBI1 160820Z 17007KT 03/M01 A302 RMK A01 T00321007  RH  076%=      5-min Rain = 0
KBI1 160821Z 17007KT 03/M01 A302 RMK A01 T00331007  RH  075%=      5-min Rain = 0
KBI1 160822Z 17007KT 03/M01 A302 RMK A01 T00331006  RH  075%=      5-min Rain = 0
KBI1 160823Z 17007KT 03/M01 A302 RMK A01 T00341006  RH  075%=      5-min Rain = 0
KBI1 160824Z 16007KT 04/M01 A302 RMK A01 T00351005  RH  075%=      5-min Rain = 0
KBI1 160825Z 16007KT 04/M01 A302 RMK A01 T00351005  RH  075%=      5-min Rain = 0
KBI1 160826Z 16007KT 04/M01 A3019 RMK A01 T00361005  RH  074%=      5-min Rain = 0
KBI1 160827Z 16007KT 04/M01 A3019 RMK A01 T00361005  RH  074%=      5-min Rain = 0
KBI1 160828Z 16006KT 04/M01 A3019 RMK A01 T00361005  RH  074%=      5-min Rain = 0
KBI1 160829Z 17007KT 04/M01 A3019 RMK A01 T00371005  RH  074%=      5-min Rain = 0
KBI1 160830Z 16006KT 04/M01 A3019 RMK A01 T00371005  RH  074%=      5-min Rain = 0
KBI1 160831Z 17007KT 04/M01 A3019 RMK A01 T00371005  RH  074%=      5-min Rain = 0
KBI1 160832Z 16007KT 04/M01 A3019 RMK A01 T00371005  RH  074%=      5-min Rain = 0
KBI1 160833Z 17007KT 04/M01 A3019 RMK A01 T00371005  RH  074%=      5-min Rain = 0
KBI1 160834Z 17007KT 04/M01 A3019 RMK A01 T00371005  RH  074%=      5-min Rain = 0
KBI1 160835Z 16006KT 04/M01 A3019 RMK A01 T00371006  RH  074%=      5-min Rain = 0
KBI1 160836Z 17007KT 04/M01 A3019 RMK A01 T00371006  RH  074%=      5-min Rain = 0
KBI1 160837Z 16007KT 04/M01 A3019 RMK A01 T00361006  RH  074%=      5-min Rain = 0
KBI1 160838Z 16007KT 04/M01 A3019 RMK A01 T00361006  RH  074%=      5-min Rain = 0
KBI1 160839Z 16006KT 04/M01 A3019 RMK A01 T00361006  RH  074%=      5-min Rain = 0
KBI1 160840Z 16007KT 04/M01 A3019 RMK A01 T00361006  RH  074%=      5-min Rain = 0
KBI1 160841Z 16007KT 04/M01 A3019 RMK A01 T00361006  RH  074%=      5-min Rain = 0
KBI1 160842Z 16007KT 04/M01 A3019 RMK A01 T00361006  RH  074%=      5-min Rain = 0
KBI1 160843Z 16007KT 04/M01 A3019 RMK A01 T00361006  RH  074%=      5-min Rain = 0
KBI1 160844Z 16007KT 04/M01 A3019 RMK A01 T00361006  RH  074%=      5-min Rain = 0
KBI1 160845Z 16007KT 04/M01 A3019 RMK A01 T00361006  RH  074%=      5-min Rain = 0
KBI1 160846Z 17007KT 04/M01 A3019 RMK A01 T00361006  RH  074%=      5-min Rain = 0
KBI1 160847Z 17007KT 04/M01 A3019 RMK A01 T00351006  RH  075%=      5-min Rain = 0
KBI1 160848Z 16007KT 04/M01 A3019 RMK A01 T00351006  RH  075%=      5-min Rain = 0
KBI1 160849Z 17007KT 04/M01 A3019 RMK A01 T00351006  RH  075%=      5-min Rain = 0
KBI1 160850Z 16008KT 04/M01 A3019 RMK A01 T00351006  RH  075%=      5-min Rain = 0
KBI1 160851Z 16008KT 04/M01 A3019 RMK A01 T00351006  RH  075%=      5-min Rain = 0
KBI1 160852Z 16007KT 03/M01 A3019 RMK A01 T00341006  RH  075%=      5-min Rain = 0
KBI1 160853Z 16007KT 03/M01 A3019 RMK A01 T00341006  RH  075%=      5-min Rain = 0
KBI1 160854Z 16007KT 03/M01 A3019 RMK A01 T00341006  RH  075%=      5-min Rain = 0
KBI1 160855Z 16007KT 03/M01 A3019 RMK A01 T00331006  RH  075%=      5-min Rain = 0
KBI1 160856Z 16007KT 03/M01 A3019 RMK A01 T00331006  RH  075%=      5-min Rain = 0
KBI1 160857Z 16007KT 03/M01 A3019 RMK A01 T00331006  RH  076%=      5-min Rain = 0
KBI1 160858Z 16007KT 03/M01 A3019 RMK A01 T00331006  RH  076%=      5-min Rain = 0
KBI1 160859Z 16007KT 03/M01 A3019 RMK A01 T00331006  RH  076%=      5-min Rain = 0
KBI1 160900Z 16007KT 03/M01 A3019 RMK A01 T00331006  RH  076%=      5-min Rain = 0
KBI1 160901Z 16007KT 03/M01 A3019 RMK A01 T00331006  RH  076%=      5-min Rain = 0
KBI1 160902Z 16007KT 03/M01 A3019 RMK A01 T00341006  RH  076%=      5-min Rain = 0
KBI1 160903Z 16007KT 03/M01 A3019 RMK A01 T00341006  RH  075%=      5-min Rain = 0
KBI1 160904Z 16007KT 03/M01 A3019 RMK A01 T00341006  RH  075%=      5-min Rain = 0
KBI1 160905Z 16007KT 03/M01 A3019 RMK A01 T00341006  RH  075%=      5-min Rain = 0
KBI1 160906Z 16007KT 03/M01 A3019 RMK A01 T00341006  RH  075%=      5-min Rain = 0
KBI1 160907Z 16007KT 03/M01 A3019 RMK A01 T00341005  RH  075%=      5-min Rain = 0
KBI1 160908Z 16007KT 03/M01 A3019 RMK A01 T00341005  RH  076%=      5-min Rain = 0
KBI1 160909Z 16007KT 03/M01 A3018 RMK A01 T00341005  RH  076%=      5-min Rain = 0
KBI1 160910Z 16007KT 03/M01 A3018 RMK A01 T00341005  RH  075%=      5-min Rain = 0
KBI1 160911Z 16006KT 03/M01 A3018 RMK A01 T00341005  RH  075%=      5-min Rain = 0
KBI1 160912Z 16007KT 03/M01 A3018 RMK A01 T00341005  RH  075%=      5-min Rain = 0
KBI1 160913Z 16007KT 04/M01 A3018 RMK A01 T00351005  RH  075%=      5-min Rain = 0
KBI1 160914Z 16007KT 04/M01 A3018 RMK A01 T00361005  RH  075%=      5-min Rain = 0
KBI1 160915Z 16007KT 04/M01 A3019 RMK A01 T00361005  RH  075%=      5-min Rain = 0
KBI1 160916Z 16007KT 04/M01 A3019 RMK A01 T00361005  RH  075%=      5-min Rain = 0
KBI1 160917Z 16007KT 04/M01 A3019 RMK A01 T00361005  RH  075%=      5-min Rain = 0
KBI1 160918Z 16007KT 04/M01 A3019 RMK A01 T00361005  RH  075%=      5-min Rain = 0
KBI1 160919Z 16007KT 04/M01 A3019 RMK A01 T00361005  RH  075%=      5-min Rain = 0
KBI1 160920Z 16007KT 04/M01 A3019 RMK A01 T00361005  RH  075%=      5-min Rain = 0
KBI1 160921Z 16006KT 04/M01 A3019 RMK A01 T00361005  RH  075%=      5-min Rain = 0
KBI1 160922Z 16007KT 04/M01 A3019 RMK A01 T00361005  RH  075%=      5-min Rain = 0
KBI1 160923Z 17007KT 04/M01 A3019 RMK A01 T00361005  RH  075%=      5-min Rain = 0
KBI1 160924Z 16007KT 04/M01 A3019 RMK A01 T00361005  RH  075%=      5-min Rain = 0
KBI1 160925Z 17007KT 04/M01 A3019 RMK A01 T00361005  RH  075%=      5-min Rain = 0
KBI1 160926Z 16007KT 04/M01 A3019 RMK A01 T00351005  RH  075%=      5-min Rain = 0
KBI1 160927Z 16007KT 04/M01 A3018 RMK A01 T00351005  RH  075%=      5-min Rain = 0
KBI1 160928Z 16007KT 04/M01 A3019 RMK A01 T00351005  RH  075%=      5-min Rain = 0
KBI1 160929Z 17007KT 03/M01 A3019 RMK A01 T00341005  RH  075%=      5-min Rain = 0
KBI1 160930Z 16007KT 03/M01 A3019 RMK A01 T00341005  RH  075%=      5-min Rain = 0
KBI1 160931Z 17008KT 03/M01 A3019 RMK A01 T00341005  RH  075%=      5-min Rain = 0
KBI1 160932Z 17007KT 03/M01 A3019 RMK A01 T00341005  RH  076%=      5-min Rain = 0
KBI1 160933Z 17007KT 03/M01 A3019 RMK A01 T00331006  RH  076%=      5-min Rain = 0
KBI1 160934Z 16007KT 03/M01 A3019 RMK A01 T00331006  RH  076%=      5-min Rain = 0
KBI1 160935Z 16007KT 03/M01 A3019 RMK A01 T00321006  RH  076%=      5-min Rain = 0
KBI1 160936Z 16008KT 03/M01 A3019 RMK A01 T00321006  RH  076%=      5-min Rain = 0
KBI1 160937Z 16007KT 03/M01 A3019 RMK A01 T00321005  RH  076%=      5-min Rain = 0
KBI1 160938Z 16007KT 03/M01 A3018 RMK A01 T00321005  RH  076%=      5-min Rain = 0
KBI1 160939Z 16007KT 03/M01 A3018 RMK A01 T00321006  RH  076%=      5-min Rain = 0
KBI1 160940Z 17008KT 03/M01 A3018 RMK A01 T00321006  RH  076%=      5-min Rain = 0
KBI1 160941Z 17007KT 03/M01 A3018 RMK A01 T00321006  RH  076%=      5-min Rain = 0
KBI1 160942Z 17007KT 03/M01 A3018 RMK A01 T00331005  RH  076%=      5-min Rain = 0
KBI1 160943Z 17007KT 03/M01 A3018 RMK A01 T00321006  RH  076%=      5-min Rain = 0
KBI1 160944Z 17007KT 03/M01 A3018 RMK A01 T00311006  RH  077%=      5-min Rain = 0
KBI1 160945Z 17006KT 03/M01 A3018 RMK A01 T00311006  RH  077%=      5-min Rain = 0
KBI1 160946Z 17007KT 03/M01 A3018 RMK A01 T00311005  RH  077%=      5-min Rain = 0
KBI1 160947Z 17006KT 03/M01 A3019 RMK A01 T00311005  RH  077%=      5-min Rain = 0
KBI1 160948Z 17006KT 03/M01 A3019 RMK A01 T00311005  RH  077%=      5-min Rain = 0
KBI1 160949Z 17007KT 03/M01 A3019 RMK A01 T00311005  RH  077%=      5-min Rain = 0
KBI1 160950Z 18007KT 03/M01 A3019 RMK A01 T00311005  RH  077%=      5-min Rain = 0
KBI1 160951Z 17006KT 03/M01 A3019 RMK A01 T00311005  RH  077%=      5-min Rain = 0
KBI1 160952Z 18006KT 03/M01 A3019 RMK A01 T00311005  RH  077%=      5-min Rain = 0
KBI1 160953Z 18006KT 03/M01 A3019 RMK A01 T00311006  RH  077%=      5-min Rain = 0
KBI1 160954Z 18007KT 03/M01 A3019 RMK A01 T00301005  RH  077%=      5-min Rain = 0
KBI1 160955Z 18006KT 03/M01 A3019 RMK A01 T00311005  RH  077%=      5-min Rain = 0
KBI1 160956Z 18007KT 03/M01 A3019 RMK A01 T00301006  RH  077%=      5-min Rain = 0
KBI1 160957Z 17007KT 03/M01 A3019 RMK A01 T00291006  RH  078%=      5-min Rain = 0
KBI1 160958Z 17007KT 03/M01 A3019 RMK A01 T00291006  RH  078%=      5-min Rain = 0
KBI1 160959Z 17007KT 03/M01 A3019 RMK A01 T00291006  RH  078%=      5-min Rain = 0
KBI1 161000Z 17007KT 03/M01 A3019 RMK A01 T00291006  RH  078%=      5-min Rain = 0
KBI1 161001Z 17006KT 03/M01 A3019 RMK A01 T00291006  RH  078%=      5-min Rain = 0
KBI1 161002Z 17007KT 03/M01 A3019 RMK A01 T00291005  RH  078%=      5-min Rain = 0
KBI1 161003Z 17006KT 03/M01 A3019 RMK A01 T00291006  RH  078%=      5-min Rain = 0
KBI1 161004Z 17006KT 03/M01 A3019 RMK A01 T00291006  RH  078%=      5-min Rain = 0
KBI1 161005Z 18006KT 03/M01 A3019 RMK A01 T00281007  RH  078%=      5-min Rain = 0
KBI1 161006Z 18006KT 03/M01 A3019 RMK A01 T00271008  RH  078%=      5-min Rain = 0
KBI1 161007Z 18006KT 03/M01 A3019 RMK A01 T00261008  RH  078%=      5-min Rain = 0
KBI1 161008Z 17006KT 03/M01 A3019 RMK A01 T00261008  RH  079%=      5-min Rain = 0
KBI1 161009Z 17006KT 03/M01 A3019 RMK A01 T00251008  RH  079%=      5-min Rain = 0
KBI1 161010Z 17006KT 03/M01 A3019 RMK A01 T00251007  RH  079%=      5-min Rain = 0
KBI1 161011Z 17007KT 03/M01 A3019 RMK A01 T00251007  RH  080%=      5-min Rain = 0
KBI1 161012Z 17007KT 03/M01 A3019 RMK A01 T00251006  RH  080%=      5-min Rain = 0
KBI1 161013Z 17007KT 03/M01 A3018 RMK A01 T00251006  RH  080%=      5-min Rain = 0
KBI1 161014Z 16007KT 03/M01 A3018 RMK A01 T00261006  RH  080%=      5-min Rain = 0
KBI1 161015Z 16006KT 03/M01 A3018 RMK A01 T00261006  RH  079%=      5-min Rain = 0
KBI1 161016Z 17007KT 03/M01 A3018 RMK A01 T00271006  RH  079%=      5-min Rain = 0
KBI1 161017Z 16007KT 03/M01 A3018 RMK A01 T00271006  RH  079%=      5-min Rain = 0
KBI1 161018Z 16007KT 03/M01 A3018 RMK A01 T00281005  RH  079%=      5-min Rain = 0
KBI1 161019Z 16008KT 03/M01 A3018 RMK A01 T00281005  RH  079%=      5-min Rain = 0
KBI1 161020Z 16007KT 03/M00 A3018 RMK A01 T00291004  RH  079%=      5-min Rain = 0
KBI1 161021Z 16007KT 03/M00 A3018 RMK A01 T00291004  RH  079%=      5-min Rain = 0
KBI1 161022Z 16007KT 03/M01 A3018 RMK A01 T00301005  RH  078%=      5-min Rain = 0
KBI1 161023Z 16008KT 03/M01 A3018 RMK A01 T00301005  RH  078%=      5-min Rain = 0
KBI1 161024Z 16008KT 03/M01 A3018 RMK A01 T00301005  RH  078%=      5-min Rain = 0
KBI1 161025Z 16007KT 03/M01 A3018 RMK A01 T00301005  RH  078%=      5-min Rain = 0
KBI1 161026Z 16007KT 03/M01 A3018 RMK A01 T00301005  RH  078%=      5-min Rain = 0
KBI1 161027Z 16007KT 03/M01 A3018 RMK A01 T00301005  RH  078%=      5-min Rain = 0
KBI1 161028Z 16007KT 03/M01 A3018 RMK A01 T00301005  RH  078%=      5-min Rain = 0
KBI1 161029Z 16008KT 03/M01 A3018 RMK A01 T00301005  RH  078%=      5-min Rain = 0
KBI1 161030Z 16007KT 03/M01 A3018 RMK A01 T00301005  RH  078%=      5-min Rain = 0
KBI1 161031Z 16008KT 03/M01 A3018 RMK A01 T00301005  RH  078%=      5-min Rain = 0
KBI1 161032Z 16008KT 03/M01 A3018 RMK A01 T00301005  RH  078%=      5-min Rain = 0
KBI1 161033Z 16007KT 03/M01 A3018 RMK A01 T00301005  RH  078%=      5-min Rain = 0
KBI1 161034Z 16008KT 03/M01 A3018 RMK A01 T00301005  RH  078%=      5-min Rain = 0
KBI1 161035Z 16007KT 03/M01 A3018 RMK A01 T00301005  RH  078%=      5-min Rain = 0
KBI1 161036Z 16008KT 03/M01 A3018 RMK A01 T00301005  RH  078%=      5-min Rain = 0
KBI1 161037Z 16008KT 03/M01 A3018 RMK A01 T00291006  RH  078%=      5-min Rain = 0
KBI1 161038Z 16007KT 03/M01 A3018 RMK A01 T00291006  RH  078%=      5-min Rain = 0
KBI1 161039Z 16007KT 03/M01 A3018 RMK A01 T00281006  RH  078%=      5-min Rain = 0
KBI1 161040Z 16007KT 03/M01 A3018 RMK A01 T00271007  RH  078%=      5-min Rain = 0
KBI1 161041Z 16007KT 03/M01 A3018 RMK A01 T00271007  RH  079%=      5-min Rain = 0
KBI1 161042Z 16007KT 03/M01 A3017 RMK A01 T00261007  RH  079%=      5-min Rain = 0
KBI1 161043Z 15008KT 03/M01 A3017 RMK A01 T00261007  RH  079%=      5-min Rain = 0
KBI1 161044Z 16008KT 03/M01 A3017 RMK A01 T00261006  RH  079%=      5-min Rain = 0
KBI1 161045Z 16007KT 03/M01 A3017 RMK A01 T00271006  RH  079%=      5-min Rain = 0
KBI1 161046Z 16007KT 03/M01 A3017 RMK A01 T00271006  RH  079%=      5-min Rain = 0
KBI1 161047Z 16007KT 03/M01 A3017 RMK A01 T00271006  RH  079%=      5-min Rain = 0
KBI1 161048Z 16008KT 03/M01 A3017 RMK A01 T00281006  RH  079%=      5-min Rain = 0
KBI1 161049Z 16008KT 03/M01 A3018 RMK A01 T00281005  RH  079%=      5-min Rain = 0
KBI1 161050Z 16007KT 03/M01 A3017 RMK A01 T00281005  RH  079%=      5-min Rain = 0
KBI1 161051Z 16007KT 03/M01 A3017 RMK A01 T00281005  RH  079%=      5-min Rain = 0
KBI1 161052Z 16007KT 03/M01 A3017 RMK A01 T00291005  RH  078%=      5-min Rain = 0
KBI1 161053Z 16008KT 03/M01 A3017 RMK A01 T00291005  RH  078%=      5-min Rain = 0
KBI1 161054Z 16008KT 03/M01 A3017 RMK A01 T00291005  RH  078%=      5-min Rain = 0
KBI1 161055Z 16007KT 03/M01 A3017 RMK A01 T00291005  RH  078%=      5-min Rain = 0
KBI1 161056Z 16008KT 03/M01 A3017 RMK A01 T00291005  RH  078%=      5-min Rain = 0
KBI1 161057Z 16008KT 03/M01 A3017 RMK A01 T00291005  RH  078%=      5-min Rain = 0
KBI1 161058Z 16008KT 03/M01 A3017 RMK A01 T00291005  RH  078%=      5-min Rain = 0
KBI1 161059Z 16008KT 03/M01 A3017 RMK A01 T00301005  RH  078%=      5-min Rain = 0
KBI1 161100Z 16008KT 03/M01 A3017 RMK A01 T00301005  RH  078%=      5-min Rain = 0
KBI1 161101Z 17007KT 03/M01 A3018 RMK A01 T00291005  RH  078%=      5-min Rain = 0
KBI1 161102Z 17007KT 03/M01 A3018 RMK A01 T00291005  RH  078%=      5-min Rain = 0
KBI1 161103Z 16007KT 03/M01 A3018 RMK A01 T00281005  RH  079%=      5-min Rain = 0
KBI1 161104Z 16008KT 03/M01 A3018 RMK A01 T00281006  RH  079%=      5-min Rain = 0
KBI1 161105Z 16007KT 03/M01 A3018 RMK A01 T00271005  RH  079%=      5-min Rain = 0
KBI1 161106Z 16008KT 03/M01 A3018 RMK A01 T00271005  RH  079%=      5-min Rain = 0
KBI1 161107Z 16008KT 03/M01 A3018 RMK A01 T00271005  RH  079%=      5-min Rain = 0
KBI1 161108Z 16008KT 03/M01 A3018 RMK A01 T00271005  RH  079%=      5-min Rain = 0
KBI1 161109Z 16008KT 03/M01 A3018 RMK A01 T00271005  RH  079%=      5-min Rain = 0
KBI1 161110Z 16008KT 03/M01 A3018 RMK A01 T00271005  RH  079%=      5-min Rain = 0
KBI1 161111Z 16008KT 03/M01 A3018 RMK A01 T00271005  RH  079%=      5-min Rain = 0
KBI1 161112Z 16008KT 03/M01 A3018 RMK A01 T00271005  RH  079%=      5-min Rain = 0
KBI1 161113Z 16008KT 03/M01 A3018 RMK A01 T00271005  RH  080%=      5-min Rain = 0
KBI1 161114Z 16008KT 03/M01 A3018 RMK A01 T00271005  RH  079%=      5-min Rain = 0
KBI1 161115Z 16008KT 03/M01 A3018 RMK A01 T00271005  RH  079%=      5-min Rain = 0
KBI1 161116Z 16008KT 03/M01 A3018 RMK A01 T00271005  RH  079%=      5-min Rain = 0
KBI1 161117Z 16008KT 03/M01 A3018 RMK A01 T00271005  RH  079%=      5-min Rain = 0
KBI1 161118Z 16008KT 03/M01 A3018 RMK A01 T00281005  RH  079%=      5-min Rain = 0
KBI1 161119Z 16008KT 03/M01 A3018 RMK A01 T00271005  RH  079%=      5-min Rain = 0
KBI1 161120Z 16008KT 03/M01 A3018 RMK A01 T00271005  RH  079%=      5-min Rain = 0
KBI1 161121Z 16008KT 03/M00 A3018 RMK A01 T00281004  RH  079%=      5-min Rain = 0
KBI1 161122Z 16008KT 03/M00 A3018 RMK A01 T00281004  RH  079%=      5-min Rain = 0
KBI1 161123Z 16007KT 03/M00 A3018 RMK A01 T00281004  RH  079%=      5-min Rain = 0
KBI1 161124Z 16008KT 03/M01 A3018 RMK A01 T00291005  RH  079%=      5-min Rain = 0
KBI1 161125Z 16008KT 03/M01 A3018 RMK A01 T00291005  RH  079%=      5-min Rain = 0
KBI1 161126Z 16007KT 03/M01 A3018 RMK A01 T00281005  RH  079%=      5-min Rain = 0
KBI1 161127Z 16007KT 03/M01 A3018 RMK A01 T00291005  RH  079%=      5-min Rain = 0
KBI1 161128Z 16008KT 03/M01 A3018 RMK A01 T00281005  RH  079%=      5-min Rain = 0
KBI1 161129Z 16007KT 03/M01 A3018 RMK A01 T00281005  RH  079%=      5-min Rain = 0
KBI1 161130Z 16007KT 03/M01 A3018 RMK A01 T00281005  RH  079%=      5-min Rain = 0
KBI1 161131Z 16008KT 03/M01 A3018 RMK A01 T00281005  RH  079%=      5-min Rain = 0
KBI1 161132Z 16008KT 03/M01 A3018 RMK A01 T00271005  RH  079%=      5-min Rain = 0
KBI1 161133Z 16007KT 03/M01 A3018 RMK A01 T00271005  RH  079%=      5-min Rain = 0
KBI1 161134Z 16007KT 03/M01 A3018 RMK A01 T00271005  RH  079%=      5-min Rain = 0
KBI1 161135Z 16007KT 03/M01 A3018 RMK A01 T00271005  RH  079%=      5-min Rain = 0
KBI1 161136Z 16007KT 03/M01 A3017 RMK A01 T00261005  RH  079%=      5-min Rain = 0
KBI1 161137Z 16008KT 03/M01 A3017 RMK A01 T00261006  RH  080%=      5-min Rain = 0
KBI1 161138Z 16007KT 03/M01 A3018 RMK A01 T00261006  RH  080%=      5-min Rain = 0
KBI1 161139Z 16007KT 03/M01 A3018 RMK A01 T00261006  RH  080%=      5-min Rain = 0
KBI1 161140Z 16007KT 03/M01 A3018 RMK A01 T00261006  RH  080%=      5-min Rain = 0
KBI1 161141Z 16007KT 03/M01 A3018 RMK A01 T00261005  RH  080%=      5-min Rain = 0
KBI1 161142Z 16007KT 03/M01 A3018 RMK A01 T00251006  RH  080%=      5-min Rain = 0
KBI1 161143Z 16007KT 03/M01 A3018 RMK A01 T00251006  RH  080%=      5-min Rain = 0
KBI1 161144Z 16007KT 03/M01 A3018 RMK A01 T00251006  RH  080%=      5-min Rain = 0
KBI1 161145Z 16007KT 02/M01 A3018 RMK A01 T00241006  RH  080%=      5-min Rain = 0
KBI1 161146Z 15007KT 02/M01 A3018 RMK A01 T00241006  RH  080%=      5-min Rain = 0
KBI1 161147Z 15007KT 02/M01 A3017 RMK A01 T00241006  RH  081%=      5-min Rain = 0
KBI1 161148Z 16006KT 02/M01 A3017 RMK A01 T00241006  RH  081%=      5-min Rain = 0
KBI1 161149Z 15007KT 02/M01 A3017 RMK A01 T00231006  RH  081%=      5-min Rain = 0
KBI1 161150Z 15007KT 02/M01 A3017 RMK A01 T00241006  RH  081%=      5-min Rain = 0
KBI1 161151Z 15007KT 02/M01 A3017 RMK A01 T00241006  RH  081%=      5-min Rain = 0
KBI1 161152Z 15007KT 02/M01 A3017 RMK A01 T00241006  RH  081%=      5-min Rain = 0
KBI1 161153Z 16007KT 02/M01 A3017 RMK A01 T00241005  RH  081%=      5-min Rain = 0
KBI1 161154Z 15007KT 02/M01 A3017 RMK A01 T00241006  RH  081%=      5-min Rain = 0
KBI1 161155Z 16007KT 02/M01 A3017 RMK A01 T00241006  RH  081%=      5-min Rain = 0
KBI1 161156Z 16007KT 02/M01 A3017 RMK A01 T00241006  RH  081%=      5-min Rain = 0
KBI1 161157Z 16007KT 02/M01 A3017 RMK A01 T00241005  RH  081%=      5-min Rain = 0
KBI1 161158Z 16007KT 02/M01 A3017 RMK A01 T00241005  RH  081%=      5-min Rain = 0
KBI1 161159Z 16007KT 02/M01 A3017 RMK A01 T00241006  RH  081%=      5-min Rain = 0
KBI1 161200Z 16007KT 02/M01 A3017 RMK A01 T00241006  RH  081%=      5-min Rain = 0
KBI1 161201Z 16007KT 02/M01 A3017 RMK A01 T00241006  RH  081%=      5-min Rain = 0
KBI1 161202Z 16007KT 02/M01 A3017 RMK A01 T00231006  RH  081%=      5-min Rain = 0
KBI1 161203Z 16007KT 02/M01 A3017 RMK A01 T00231006  RH  081%=      5-min Rain = 0
KBI1 161204Z 16007KT 02/M01 A3018 RMK A01 T00231006  RH  081%=      5-min Rain = 0
KBI1 161205Z 16007KT 02/M01 A3018 RMK A01 T00231006  RH  081%=      5-min Rain = 0
KBI1 161206Z 16007KT 02/M01 A3018 RMK A01 T00231006  RH  081%=      5-min Rain = 0
KBI1 161207Z 16006KT 02/M01 A3018 RMK A01 T00231005  RH  081%=      5-min Rain = 0
KBI1 161208Z 16007KT 02/M01 A3018 RMK A01 T00231006  RH  081%=      5-min Rain = 0
KBI1 161209Z 16006KT 02/M01 A3018 RMK A01 T00231005  RH  081%=      5-min Rain = 0
KBI1 161210Z 16006KT 02/M01 A3018 RMK A01 T00231006  RH  081%=      5-min Rain = 0
KBI1 161211Z 16006KT 02/M01 A3018 RMK A01 T00221006  RH  081%=      5-min Rain = 0
KBI1 161212Z 16007KT 02/M01 A3018 RMK A01 T00221006  RH  082%=      5-min Rain = 0
KBI1 161213Z 16006KT 02/M01 A3018 RMK A01 T00221005  RH  082%=      5-min Rain = 0
KBI1 161214Z 16006KT 02/M01 A3018 RMK A01 T00211006  RH  082%=      5-min Rain = 0
KBI1 161215Z 16006KT 02/M01 A3018 RMK A01 T00211006  RH  082%=      5-min Rain = 0
KBI1 161216Z 16006KT 02/M01 A3018 RMK A01 T00211006  RH  082%=      5-min Rain = 0
KBI1 161217Z 16006KT 02/M01 A3018 RMK A01 T00201006  RH  083%=      5-min Rain = 0
KBI1 161218Z 16006KT 02/M01 A3018 RMK A01 T00211006  RH  083%=      5-min Rain = 0
KBI1 161219Z 16006KT 02/M01 A3018 RMK A01 T00201006  RH  083%=      5-min Rain = 0
KBI1 161220Z 16006KT 02/M01 A3018 RMK A01 T00201006  RH  083%=      5-min Rain = 0
KBI1 161221Z 16006KT 02/M01 A3018 RMK A01 T00211005  RH  083%=      5-min Rain = 0
KBI1 161222Z 16006KT 02/M01 A3018 RMK A01 T00211005  RH  083%=      5-min Rain = 0
KBI1 161223Z 16006KT 02/M01 A3018 RMK A01 T00211005  RH  083%=      5-min Rain = 0
KBI1 161224Z 16006KT 02/M01 A3018 RMK A01 T00221005  RH  083%=      5-min Rain = 0
KBI1 161225Z 16006KT 02/M00 A3018 RMK A01 T00221004  RH  083%=      5-min Rain = 0
KBI1 161226Z 16006KT 02/M01 A3018 RMK A01 T00221005  RH  082%=      5-min Rain = 0
KBI1 161227Z 16006KT 02/M01 A3018 RMK A01 T00221005  RH  082%=      5-min Rain = 0
KBI1 161228Z 16007KT 02/M00 A3018 RMK A01 T00231004  RH  082%=      5-min Rain = 0
KBI1 161229Z 16006KT 02/M00 A3018 RMK A01 T00241004  RH  082%=      5-min Rain = 0
KBI1 161230Z 16006KT 02/M00 A3018 RMK A01 T00241004  RH  082%=      5-min Rain = 0
KBI1 161231Z 16006KT 02/M00 A3018 RMK A01 T00241004  RH  082%=      5-min Rain = 0
KBI1 161232Z 16006KT 03/M00 A3018 RMK A01 T00251004  RH  082%=      5-min Rain = 0
KBI1 161233Z 16005KT 03/M00 A3018 RMK A01 T00251004  RH  082%=      5-min Rain = 0
KBI1 161234Z 16006KT 03/M00 A3018 RMK A01 T00251003  RH  082%=      5-min Rain = 0
KBI1 161235Z 16006KT 02/M00 A3018 RMK A01 T00241004  RH  082%=      5-min Rain = 0
KBI1 161236Z 15006KT 03/M00 A3018 RMK A01 T00251004  RH  082%=      5-min Rain = 0
KBI1 161237Z 16005KT 03/M00 A3018 RMK A01 T00251004  RH  082%=      5-min Rain = 0
KBI1 161238Z 15006KT 03/M00 A3018 RMK A01 T00251004  RH  082%=      5-min Rain = 0
KBI1 161239Z 15005KT 03/M00 A3018 RMK A01 T00251003  RH  082%=      5-min Rain = 0
KBI1 161240Z 15006KT 03/M00 A3018 RMK A01 T00251003  RH  082%=      5-min Rain = 0
KBI1 161241Z 15006KT 03/M00 A3018 RMK A01 T00251003  RH  082%=      5-min Rain = 0
KBI1 161242Z 15006KT 03/M00 A3018 RMK A01 T00251003  RH  082%=      5-min Rain = 0
KBI1 161243Z 16006KT 03/M00 A3018 RMK A01 T00251003  RH  082%=      5-min Rain = 0
KBI1 161244Z 16006KT 03/M00 A3018 RMK A01 T00251003  RH  082%=      5-min Rain = 0
KBI1 161245Z 16006KT 03/M00 A3018 RMK A01 T00251003  RH  082%=      5-min Rain = 0
KBI1 161246Z 16005KT 03/M00 A3018 RMK A01 T00251003  RH  082%=      5-min Rain = 0
KBI1 161247Z 15006KT 03/M00 A3018 RMK A01 T00261002  RH  082%=      5-min Rain = 0
KBI1 161248Z 15005KT 03/M00 A3018 RMK A01 T00261002  RH  082%=      5-min Rain = 0
KBI1 161249Z 16005KT 03/M00 A3018 RMK A01 T00251002  RH  082%=      5-min Rain = 0
KBI1 161250Z 15005KT 03/M00 A3018 RMK A01 T00261002  RH  082%=      5-min Rain = 0
KBI1 161251Z 15005KT 03/M00 A3018 RMK A01 T00261002  RH  082%=      5-min Rain = 0
KBI1 161252Z 16004KT 03/M00 A3018 RMK A01 T00261002  RH  082%=      5-min Rain = 0
KBI1 161253Z 16004KT 03/M00 A3018 RMK A01 T00261002  RH  082%=      5-min Rain = 0
KBI1 161254Z 16004KT 03/M00 A3018 RMK A01 T00261002  RH  082%=      5-min Rain = 0
KBI1 161255Z 16004KT 03/M00 A3018 RMK A01 T00261002  RH  082%=      5-min Rain = 0
KBI1 161256Z 16005KT 03/M00 A3018 RMK A01 T00261002  RH  082%=      5-min Rain = 0
KBI1 161257Z 16005KT 03/M00 A3018 RMK A01 T00261002  RH  082%=      5-min Rain = 0
KBI1 161258Z 16004KT 03/M00 A3018 RMK A01 T00271002  RH  082%=      5-min Rain = 0
KBI1 161259Z 16004KT 03/M00 A3018 RMK A01 T00271001  RH  082%=      5-min Rain = 0
KBI1 161300Z 15004KT 03/M00 A3018 RMK A01 T00271001  RH  081%=      5-min Rain = 0
KBI1 161301Z 16003KT 03/M00 A3018 RMK A01 T00271002  RH  081%=      5-min Rain = 0
KBI1 161302Z 16004KT 03/M00 A3018 RMK A01 T00271002  RH  081%=      5-min Rain = 0
KBI1 161303Z 16005KT 03/M00 A3018 RMK A01 T00271001  RH  081%=      5-min Rain = 0
KBI1 161304Z 16005KT 03/M00 A3018 RMK A01 T00271002  RH  081%=      5-min Rain = 0
KBI1 161305Z 16004KT 03/M00 A3018 RMK A01 T00271002  RH  081%=      5-min Rain = 0
KBI1 161306Z 17005KT 03/M00 A3018 RMK A01 T00271002  RH  081%=      5-min Rain = 0
KBI1 161307Z 16005KT 03/M00 A3018 RMK A01 T00271001  RH  082%=      5-min Rain = 0
KBI1 161308Z 16005KT 03/M00 A3019 RMK A01 T00271002  RH  081%=      5-min Rain = 0
KBI1 161309Z 17006KT 03/M00 A3019 RMK A01 T00261002  RH  082%=      5-min Rain = 0
KBI1 161310Z 17005KT 03/M00 A3019 RMK A01 T00261002  RH  082%=      5-min Rain = 0
KBI1 161311Z 17004KT 03/M00 A3019 RMK A01 T00261002  RH  082%=      5-min Rain = 0
KBI1 161312Z 17005KT 03/M00 A3019 RMK A01 T00261001  RH  082%=      5-min Rain = 0
KBI1 161313Z 17005KT 03/M00 A3019 RMK A01 T00261001  RH  082%=      5-min Rain = 0
KBI1 161314Z 17005KT 03/M00 A3019 RMK A01 T00271001  RH  082%=      5-min Rain = 0
KBI1 161315Z 16006KT 03/M00 A3019 RMK A01 T00271001  RH  082%=      5-min Rain = 0
KBI1 161316Z 16005KT 03/M00 A3019 RMK A01 T00271001  RH  082%=      5-min Rain = 0
KBI1 161317Z 17005KT 03/M00 A3019 RMK A01 T00271001  RH  082%=      5-min Rain = 0
KBI1 161318Z 17006KT 03/M00 A3019 RMK A01 T00271001  RH  081%=      5-min Rain = 0
KBI1 161319Z 16005KT 03/M00 A3019 RMK A01 T00281001  RH  081%=      5-min Rain = 0
KBI1 161320Z 17004KT 03/M00 A3019 RMK A01 T00281001  RH  081%=      5-min Rain = 0
KBI1 161321Z 17005KT 03/M00 A3019 RMK A01 T00281001  RH  081%=      5-min Rain = 0
KBI1 161322Z 16005KT 03/M00 A3019 RMK A01 T00281001  RH  081%=      5-min Rain = 0
KBI1 161323Z 16005KT 03/M00 A3019 RMK A01 T00281001  RH  081%=      5-min Rain = 0
KBI1 161324Z 17005KT 03/M00 A3019 RMK A01 T00281001  RH  081%=      5-min Rain = 0
KBI1 161325Z 16006KT 03/M00 A3019 RMK A01 T00281001  RH  081%=      5-min Rain = 0
KBI1 161326Z 16006KT 03/00 A3019 RMK A01 T002900-0  RH  081%=      5-min Rain = 0
KBI1 161327Z 16005KT 03/00 A3019 RMK A01 T00300000  RH  081%=      5-min Rain = 0
KBI1 161328Z 16006KT 03/00 A3019 RMK A01 T00300000  RH  080%=      5-min Rain = 0
KBI1 161329Z 16005KT 03/00 A3019 RMK A01 T003000-0  RH  080%=      5-min Rain = 0
KBI1 161330Z 16006KT 03/M00 A3019 RMK A01 T00311001  RH  080%=      5-min Rain = 0
KBI1 161331Z 16006KT 03/00 A3019 RMK A01 T003100-0  RH  080%=      5-min Rain = 0
KBI1 161332Z 16006KT 03/00 A3019 RMK A01 T00310000  RH  080%=      5-min Rain = 0
KBI1 161333Z 16006KT 03/00 A3019 RMK A01 T00320000  RH  080%=      5-min Rain = 0
KBI1 161334Z 16005KT 03/00 A3019 RMK A01 T00320000  RH  080%=      5-min Rain = 0
KBI1 161335Z 16005KT 03/00 A3019 RMK A01 T00320000  RH  079%=      5-min Rain = 0
KBI1 161336Z 17007KT 03/00 A3019 RMK A01 T00330000  RH  079%=      5-min Rain = 0
KBI1 161337Z 16006KT 03/00 A3019 RMK A01 T00330001  RH  079%=      5-min Rain = 0
KBI1 161338Z 17007KT 03/00 A3019 RMK A01 T00340001  RH  079%=      5-min Rain = 0
KBI1 161339Z 16005KT 03/00 A3019 RMK A01 T00330001  RH  079%=      5-min Rain = 0
KBI1 161340Z 17004KT 03/00 A3019 RMK A01 T00330001  RH  079%=      5-min Rain = 0
KBI1 161341Z 17006KT 03/00 A3019 RMK A01 T00330001  RH  079%=      5-min Rain = 0
KBI1 161342Z 17007KT 03/00 A3019 RMK A01 T00340001  RH  079%=      5-min Rain = 0
KBI1 161343Z 17006KT 04/00 A3019 RMK A01 T00350002  RH  079%=      5-min Rain = 0
KBI1 161344Z 17005KT 04/00 A3019 RMK A01 T00350002  RH  079%=      5-min Rain = 0
KBI1 161345Z 17006KT 04/00 A3019 RMK A01 T00360002  RH  078%=      5-min Rain = 0
KBI1 161346Z 17005KT 04/00 A3019 RMK A01 T00360002  RH  078%=      5-min Rain = 0
KBI1 161347Z 17006KT 04/00 A3019 RMK A01 T00370002  RH  078%=      5-min Rain = 0
KBI1 161348Z 17005KT 04/00 A3019 RMK A01 T00380003  RH  078%=      5-min Rain = 0
KBI1 161349Z 17006KT 04/00 A3019 RMK A01 T00380003  RH  078%=      5-min Rain = 0
KBI1 161350Z 17007KT 04/00 A3019 RMK A01 T00390003  RH  078%=      5-min Rain = 0
KBI1 161351Z 16005KT 04/00 A3019 RMK A01 T00390004  RH  078%=      5-min Rain = 0
KBI1 161352Z 16006KT 04/00 A3019 RMK A01 T00400004  RH  077%=      5-min Rain = 0
KBI1 161353Z 17006KT 04/00 A3019 RMK A01 T00400004  RH  077%=      5-min Rain = 0
KBI1 161354Z 16006KT 04/00 A3019 RMK A01 T00410004  RH  077%=      5-min Rain = 0
KBI1 161355Z 16005KT 04/00 A3019 RMK A01 T00420004  RH  077%=      5-min Rain = 0
KBI1 161356Z 16006KT 04/00 A3019 RMK A01 T00420004  RH  076%=      5-min Rain = 0
KBI1 161357Z 16006KT 04/01 A3019 RMK A01 T00430005  RH  076%=      5-min Rain = 0
KBI1 161358Z 16006KT 04/01 A3019 RMK A01 T00430005  RH  076%=      5-min Rain = 0
KBI1 161359Z 16006KT 04/01 A3019 RMK A01 T00430005  RH  076%=      5-min Rain = 0
KBI1 161400Z 16007KT 04/01 A3019 RMK A01 T00440005  RH  076%=      5-min Rain = 0
KBI1 161401Z 15006KT 05/01 A3019 RMK A01 T00450005  RH  075%=      5-min Rain = 0
KBI1 161402Z 16007KT 05/01 A3019 RMK A01 T00450005  RH  075%=      5-min Rain = 0
KBI1 161403Z 16009KT 05/01 A3019 RMK A01 T00450005  RH  075%=      5-min Rain = 0
KBI1 161404Z 16008KT 05/01 A3019 RMK A01 T00460005  RH  075%=      5-min Rain = 0
KBI1 161405Z 16007KT 05/01 A3019 RMK A01 T00460006  RH  075%=      5-min Rain = 0
KBI1 161406Z 16007KT 05/01 A3019 RMK A01 T00470006  RH  075%=      5-min Rain = 0
KBI1 161407Z 16005KT 05/01 A3019 RMK A01 T00470006  RH  075%=      5-min Rain = 0
KBI1 161408Z 17008KT 05/01 A3019 RMK A01 T00480007  RH  075%=      5-min Rain = 0
KBI1 161409Z 16006KT 05/01 A3019 RMK A01 T00480007  RH  075%=      5-min Rain = 0
KBI1 161410Z 16006KT 05/01 A3019 RMK A01 T00490007  RH  074%=      5-min Rain = 0
KBI1 161411Z 16006KT 05/01 A3019 RMK A01 T00490007  RH  074%=      5-min Rain = 0
KBI1 161412Z 16007KT 05/01 A3019 RMK A01 T00500008  RH  074%=      5-min Rain = 0
KBI1 161413Z 16009KT 05/01 A3019 RMK A01 T00500007  RH  074%=      5-min Rain = 0
KBI1 161414Z 16007KT 05/01 A3019 RMK A01 T00510007  RH  073%=      5-min Rain = 0
KBI1 161415Z 16008KT 05/01 A3019 RMK A01 T00520008  RH  073%=      5-min Rain = 0
KBI1 161416Z 17007KT 05/01 A3019 RMK A01 T00530008  RH  073%=      5-min Rain = 0
KBI1 161417Z 16006KT 05/01 A3019 RMK A01 T00530008  RH  073%=      5-min Rain = 0
KBI1 161418Z 17007KT 05/01 A3019 RMK A01 T00540009  RH  073%=      5-min Rain = 0
KBI1 161419Z 16005KT 06/01 A3019 RMK A01 T00550010  RH  072%=      5-min Rain = 0
KBI1 161420Z 16006KT 06/01 A3019 RMK A01 T00560009  RH  072%=      5-min Rain = 0
KBI1 161421Z 16007KT 06/01 A3019 RMK A01 T00560009  RH  072%=      5-min Rain = 0
KBI1 161422Z 16009KT 06/01 A3019 RMK A01 T00560008  RH  071%=      5-min Rain = 0
KBI1 161423Z 16008KT 06/01 A3019 RMK A01 T00560008  RH  071%=      5-min Rain = 0
KBI1 161424Z 17008KT 06/01 A3019 RMK A01 T00560008  RH  071%=      5-min Rain = 0
KBI1 161425Z 17010KT 06/01 A3019 RMK A01 T00580009  RH  071%=      5-min Rain = 0
KBI1 161426Z 15008KT 06/01 A3019 RMK A01 T00580008  RH  070%=      5-min Rain = 0
KBI1 161427Z 17009KT 06/01 A3019 RMK A01 T00580008  RH  070%=      5-min Rain = 0
KBI1 161428Z 16009KT 06/01 A3019 RMK A01 T00580008  RH  070%=      5-min Rain = 0
KBI1 161429Z 16009KT 06/01 A3019 RMK A01 T00580007  RH  070%=      5-min Rain = 0
KBI1 161430Z 16008KT 06/01 A3019 RMK A01 T00580007  RH  070%=      5-min Rain = 0
KBI1 161431Z 16007KT 06/01 A3019 RMK A01 T00580008  RH  070%=      5-min Rain = 0
KBI1 161432Z 16007KT 06/01 A3019 RMK A01 T00590009  RH  070%=      5-min Rain = 0
KBI1 161433Z 17008KT 06/01 A3019 RMK A01 T00590009  RH  070%=      5-min Rain = 0
KBI1 161434Z 16008KT 06/01 A3019 RMK A01 T00590009  RH  070%=      5-min Rain = 0
KBI1 161435Z 16007KT 06/01 A3019 RMK A01 T00600009  RH  070%=      5-min Rain = 0
KBI1 161436Z 16008KT 06/01 A3019 RMK A01 T00610010  RH  070%=      5-min Rain = 0
KBI1 161437Z 17008KT 06/01 A3019 RMK A01 T00610009  RH  069%=      5-min Rain = 0
KBI1 161438Z 17006KT 06/01 A3019 RMK A01 T00610009  RH  069%=      5-min Rain = 0
KBI1 161439Z 18010KT 06/01 A3019 RMK A01 T00610009  RH  069%=      5-min Rain = 0
KBI1 161440Z 17009KT 06/01 A3019 RMK A01 T00610009  RH  069%=      5-min Rain = 0
KBI1 161441Z 17008KT 06/01 A3019 RMK A01 T00620009  RH  069%=      5-min Rain = 0
KBI1 161442Z 17007KT 06/01 A3019 RMK A01 T00620009  RH  069%=      5-min Rain = 0
KBI1 161443Z 17007KT 06/01 A3019 RMK A01 T00620010  RH  069%=      5-min Rain = 0
KBI1 161444Z 17009KT 06/01 A3019 RMK A01 T00630010  RH  069%=      5-min Rain = 0
KBI1 161445Z 17010KT 06/01 A3019 RMK A01 T00630009  RH  069%=      5-min Rain = 0
KBI1 161446Z 16007KT 06/01 A3019 RMK A01 T00630009  RH  069%=      5-min Rain = 0
KBI1 161447Z 16008KT 06/01 A3019 RMK A01 T00630010  RH  069%=      5-min Rain = 0
KBI1 161448Z 16008KT 06/01 A3019 RMK A01 T00630009  RH  068%=      5-min Rain = 0
KBI1 161449Z 16009KT 06/01 A3019 RMK A01 T00640010  RH  068%=      5-min Rain = 0
KBI1 161450Z 16011KT 06/01 A3019 RMK A01 T00640009  RH  068%=      5-min Rain = 0
KBI1 161451Z 16009KT 07/01 A3019 RMK A01 T00650009  RH  068%=      5-min Rain = 0
KBI1 161452Z 17008G14KT 07/01 A3019 RMK A01 T00660011  RH  068%=      5-min Rain = 0
KBI1 161453Z 17011KT 07/01 A3019 RMK A01 T00660010  RH  067%=      5-min Rain = 0
KBI1 161454Z 17009KT 07/01 A3019 RMK A01 T00660010  RH  067%=      5-min Rain = 0
KBI1 161455Z 17011KT 07/01 A3019 RMK A01 T00660010  RH  067%=      5-min Rain = 0
KBI1 161456Z 17009KT 07/01 A3019 RMK A01 T00660010  RH  067%=      5-min Rain = 0
KBI1 161457Z 17009KT 07/01 A3019 RMK A01 T00670010  RH  067%=      5-min Rain = 0
KBI1 161458Z 18010KT 07/01 A3019 RMK A01 T00670011  RH  067%=      5-min Rain = 0
KBI1 161459Z 18012KT 07/01 A3019 RMK A01 T00680010  RH  067%=      5-min Rain = 0
KBI1 161500Z 17013KT 07/01 A3019 RMK A01 T00680010  RH  067%=      5-min Rain = 0
KBI1 161501Z 17013KT 07/01 A3019 RMK A01 T00680009  RH  066%=      5-min Rain = 0
KBI1 161502Z 17010KT 07/01 A3019 RMK A01 T00670009  RH  066%=      5-min Rain = 0
KBI1 161503Z 17013KT 07/01 A3019 RMK A01 T00670009  RH  067%=      5-min Rain = 0
KBI1 161504Z 17012KT 07/01 A3019 RMK A01 T00680009  RH  066%=      5-min Rain = 0
KBI1 161505Z 17012KT 07/01 A3019 RMK A01 T00680009  RH  066%=      5-min Rain = 0
KBI1 161506Z 17012KT 07/01 A3019 RMK A01 T00690010  RH  066%=      5-min Rain = 0
KBI1 161507Z 16010KT 07/01 A3019 RMK A01 T00690010  RH  066%=      5-min Rain = 0
KBI1 161508Z 17011KT 07/01 A3019 RMK A01 T00700011  RH  066%=      5-min Rain = 0
KBI1 161509Z 17012KT 07/01 A3019 RMK A01 T00700010  RH  065%=      5-min Rain = 0
KBI1 161510Z 17014KT 07/01 A3019 RMK A01 T00700010  RH  066%=      5-min Rain = 0
KBI1 161511Z 17012KT 07/01 A3019 RMK A01 T00700010  RH  066%=      5-min Rain = 0
KBI1 161512Z 17011KT 07/01 A3019 RMK A01 T00710011  RH  066%=      5-min Rain = 0
KBI1 161513Z 17009KT 07/01 A3019 RMK A01 T00730013  RH  066%=      5-min Rain = 0
KBI1 161514Z 17010KT 07/01 A3019 RMK A01 T00740013  RH  065%=      5-min Rain = 0
KBI1 161515Z 17010KT 08/01 A3019 RMK A01 T00750013  RH  065%=      5-min Rain = 0
KBI1 161516Z 16012KT 08/01 A3019 RMK A01 T00750013  RH  064%=      5-min Rain = 0
KBI1 161517Z 18013KT 08/01 A3019 RMK A01 T00760012  RH  064%=      5-min Rain = 0
KBI1 161518Z 17014KT 08/01 A3019 RMK A01 T00760012  RH  064%=      5-min Rain = 0
KBI1 161519Z 17015KT 08/01 A3019 RMK A01 T00760011  RH  063%=      5-min Rain = 0
KBI1 161520Z 17013KT 08/01 A3019 RMK A01 T00770011  RH  063%=      5-min Rain = 0
KBI1 161521Z 17012KT 08/01 A3019 RMK A01 T00770012  RH  063%=      5-min Rain = 0
KBI1 161522Z 17011KT 08/01 A3019 RMK A01 T00780013  RH  063%=      5-min Rain = 0
KBI1 161523Z 17012KT 08/01 A3019 RMK A01 T00800013  RH  063%=      5-min Rain = 0
KBI1 161524Z 17012KT 08/01 A3019 RMK A01 T00800012  RH  062%=      5-min Rain = 0
KBI1 161525Z 17011KT 08/01 A3019 RMK A01 T00810013  RH  062%=      5-min Rain = 0
KBI1 161526Z 17014KT 08/01 A3019 RMK A01 T00810013  RH  062%=      5-min Rain = 0
KBI1 161527Z 17014KT 08/01 A3019 RMK A01 T00810012  RH  062%=      5-min Rain = 0
KBI1 161528Z 17013KT 08/01 A3019 RMK A01 T00810013  RH  062%=      5-min Rain = 0
KBI1 161529Z 17013KT 08/01 A3019 RMK A01 T00810013  RH  062%=      5-min Rain = 0
KBI1 161530Z 17012KT 08/01 A3019 RMK A01 T00810014  RH  062%=      5-min Rain = 0
KBI1 161531Z 17011KT 08/01 A3019 RMK A01 T00820014  RH  062%=      5-min Rain = 0
KBI1 161532Z 18012KT 08/02 A3019 RMK A01 T00830015  RH  062%=      5-min Rain = 0
KBI1 161533Z 17010KT 08/02 A3019 RMK A01 T00840016  RH  062%=      5-min Rain = 0
KBI1 161534Z 17012KT 09/02 A3018 RMK A01 T00850016  RH  062%=      5-min Rain = 0
KBI1 161535Z 17013KT 09/02 A3018 RMK A01 T00860015  RH  061%=      5-min Rain = 0
KBI1 161536Z 17012KT 09/02 A3018 RMK A01 T00850015  RH  061%=      5-min Rain = 0
KBI1 161537Z 17011KT 09/02 A3018 RMK A01 T00850015  RH  061%=      5-min Rain = 0
KBI1 161538Z 17011G16KT 09/02 A3018 RMK A01 T00850016  RH  062%=      5-min Rain = 0
KBI1 161539Z 17015KT 09/02 A3018 RMK A01 T00860015  RH  061%=      5-min Rain = 0
KBI1 161540Z 17016KT 09/02 A3018 RMK A01 T00860015  RH  061%=      5-min Rain = 0
KBI1 161541Z 17014KT 09/02 A3018 RMK A01 T00860015  RH  061%=      5-min Rain = 0
KBI1 161542Z 16010KT 09/02 A3018 RMK A01 T00860016  RH  061%=      5-min Rain = 0
KBI1 161543Z 17013KT 09/02 A3018 RMK A01 T00870016  RH  061%=      5-min Rain = 0
KBI1 161544Z 17013KT 09/02 A3018 RMK A01 T00870016  RH  061%=      5-min Rain = 0
KBI1 161545Z 16013G18KT 09/02 A3018 RMK A01 T00870016  RH  061%=      5-min Rain = 0
KBI1 161546Z 17009KT 09/02 A3018 RMK A01 T00870016  RH  061%=      5-min Rain = 0
KBI1 161547Z 18012KT 09/02 A3018 RMK A01 T00880018  RH  061%=      5-min Rain = 0
KBI1 161548Z 17011KT 09/02 A3018 RMK A01 T00900018  RH  061%=      5-min Rain = 0
KBI1 161549Z 16012KT 09/02 A3018 RMK A01 T00890017  RH  061%=      5-min Rain = 0
KBI1 161550Z 17012KT 09/02 A3018 RMK A01 T00900018  RH  061%=      5-min Rain = 0
KBI1 161551Z 17010KT 09/02 A3018 RMK A01 T00900018  RH  061%=      5-min Rain = 0
KBI1 161552Z 17011KT 09/02 A3019 RMK A01 T00910019  RH  060%=      5-min Rain = 0
KBI1 161553Z 17010KT 09/02 A3018 RMK A01 T00920018  RH  060%=      5-min Rain = 0
KBI1 161554Z 17009KT 09/02 A3018 RMK A01 T00930019  RH  060%=      5-min Rain = 0
KBI1 161555Z 17010KT 09/02 A3018 RMK A01 T00940019  RH  060%=      5-min Rain = 0
KBI1 161556Z 17010KT 10/02 A3018 RMK A01 T00950019  RH  059%=      5-min Rain = 0
KBI1 161557Z 17011KT 10/02 A3018 RMK A01 T00950019  RH  059%=      5-min Rain = 0
KBI1 161558Z 17012KT 10/02 A3018 RMK A01 T00960019  RH  059%=      5-min Rain = 0
KBI1 161559Z 17012KT 10/02 A3018 RMK A01 T00960019  RH  059%=      5-min Rain = 0
KBI1 161600Z 16012KT 10/02 A3018 RMK A01 T00960019  RH  059%=      5-min Rain = 0
KBI1 161601Z 17014KT 10/02 A3018 RMK A01 T00960019  RH  059%=      5-min Rain = 0
KBI1 161602Z 18014KT 10/02 A3018 RMK A01 T00960019  RH  059%=      5-min Rain = 0
KBI1 161603Z 18014KT 10/02 A3018 RMK A01 T00960019  RH  059%=      5-min Rain = 0
KBI1 161604Z 17012KT 10/02 A3018 RMK A01 T00970020  RH  059%=      5-min Rain = 0
KBI1 161605Z 16013KT 10/02 A3018 RMK A01 T00980020  RH  058%=      5-min Rain = 0
KBI1 161606Z 17015KT 10/02 A3018 RMK A01 T00980020  RH  058%=      5-min Rain = 0
KBI1 161607Z 17013KT 10/02 A3018 RMK A01 T00980020  RH  058%=      5-min Rain = 0
KBI1 161608Z 17014KT 10/02 A3018 RMK A01 T00980020  RH  058%=      5-min Rain = 0
KBI1 161609Z 16013G18KT 10/02 A3018 RMK A01 T00990020  RH  058%=      5-min Rain = 0
KBI1 161610Z 17015G20KT 10/02 A3018 RMK A01 T00990020  RH  058%=      5-min Rain = 0
KBI1 161611Z 18014KT 10/02 A3018 RMK A01 T01000020  RH  058%=      5-min Rain = 0
KBI1 161612Z 18013KT 10/02 A3018 RMK A01 T01000020  RH  058%=      5-min Rain = 0
KBI1 161613Z 18012KT 10/02 A3018 RMK A01 T01010021  RH  058%=      5-min Rain = 0
KBI1 161614Z 18014KT 10/02 A3018 RMK A01 T01020022  RH  057%=      5-min Rain = 0
KBI1 161615Z 18016KT 10/02 A3018 RMK A01 T01020021  RH  057%=      5-min Rain = 0
KBI1 161616Z 18014KT 10/02 A3018 RMK A01 T01020021  RH  057%=      5-min Rain = 0
KBI1 161617Z 17014KT 10/02 A3018 RMK A01 T01010020  RH  057%=      5-min Rain = 0
KBI1 161618Z 18011KT 10/02 A3018 RMK A01 T01000020  RH  057%=      5-min Rain = 0
KBI1 161619Z 17011KT 10/02 A3018 RMK A01 T01010021  RH  058%=      5-min Rain = 0
KBI1 161620Z 17012KT 10/02 A3018 RMK A01 T01020022  RH  057%=      5-min Rain = 0
KBI1 161621Z 17012G17KT 10/02 A3018 RMK A01 T01020021  RH  057%=      5-min Rain = 0
KBI1 161622Z 18014KT 10/02 A3018 RMK A01 T01030022  RH  057%=      5-min Rain = 0
KBI1 161623Z 17011KT 10/02 A3018 RMK A01 T01030022  RH  057%=      5-min Rain = 0
KBI1 161624Z 16013KT 10/02 A3018 RMK A01 T01040022  RH  057%=      5-min Rain = 0
KBI1 161625Z 17013KT 10/02 A3017 RMK A01 T01030021  RH  057%=      5-min Rain = 0
KBI1 161626Z 17011KT 10/02 A3018 RMK A01 T01030022  RH  057%=      5-min Rain = 0
KBI1 161627Z 16012KT 10/02 A3018 RMK A01 T01040023  RH  057%=      5-min Rain = 0
KBI1 161628Z 17012G17KT 10/02 A3017 RMK A01 T01040022  RH  057%=      5-min Rain = 0
KBI1 161629Z 16012KT 11/02 A3017 RMK A01 T01050023  RH  057%=      5-min Rain = 0
KBI1 161630Z 17016KT 11/02 A3017 RMK A01 T01060023  RH  056%=      5-min Rain = 0
KBI1 161631Z 17015KT 11/02 A3017 RMK A01 T01060022  RH  056%=      5-min Rain = 0
KBI1 161632Z 17012G18KT 11/02 A3017 RMK A01 T01060023  RH  056%=      5-min Rain = 0
KBI1 161633Z 17015KT 11/02 A3017 RMK A01 T01070023  RH  056%=      5-min Rain = 0
KBI1 161634Z 16015KT 11/02 A3017 RMK A01 T01070022  RH  056%=      5-min Rain = 0
KBI1 161635Z 17013KT 11/02 A3017 RMK A01 T01070022  RH  056%=      5-min Rain = 0
KBI1 161636Z 16010G15KT 11/02 A3017 RMK A01 T01090024  RH  056%=      5-min Rain = 0
KBI1 161637Z 17014KT 11/03 A3017 RMK A01 T01110025  RH  055%=      5-min Rain = 0
KBI1 161638Z 17014KT 11/02 A3017 RMK A01 T01110024  RH  055%=      5-min Rain = 0
KBI1 161639Z 16013KT 11/02 A3017 RMK A01 T01120024  RH  054%=      5-min Rain = 0
KBI1 161640Z 16011KT 11/02 A3017 RMK A01 T01130024  RH  054%=      5-min Rain = 0
KBI1 161641Z 16010G15KT 11/02 A3017 RMK A01 T01130024  RH  054%=      5-min Rain = 0
KBI1 161642Z 16012KT 12/03 A3017 RMK A01 T01150025  RH  054%=      5-min Rain = 0
KBI1 161643Z 17010KT 12/02 A3017 RMK A01 T01160024  RH  053%=      5-min Rain = 0
KBI1 161644Z 16012G19KT 12/03 A3017 RMK A01 T01180025  RH  053%=      5-min Rain = 0
KBI1 161645Z 16014KT 12/02 A3016 RMK A01 T01190024  RH  052%=      5-min Rain = 0
KBI1 161646Z 16013KT 12/02 A3016 RMK A01 T01190024  RH  052%=      5-min Rain = 0
KBI1 161647Z 16012KT 12/02 A3016 RMK A01 T01180024  RH  052%=      5-min Rain = 0
KBI1 161648Z 16011KT 12/02 A3016 RMK A01 T01190024  RH  052%=      5-min Rain = 0
KBI1 161649Z 17012KT 12/03 A3016 RMK A01 T01200025  RH  052%=      5-min Rain = 0
KBI1 161650Z 17016KT 12/03 A3016 RMK A01 T01220026  RH  052%=      5-min Rain = 0
KBI1 161651Z 17016KT 12/03 A3016 RMK A01 T01230025  RH  051%=      5-min Rain = 0
KBI1 161652Z 17018KT 12/03 A3016 RMK A01 T01220025  RH  052%=      5-min Rain = 0
KBI1 161653Z 17018KT 12/03 A3016 RMK A01 T01210025  RH  052%=      5-min Rain = 0
KBI1 161654Z 16016KT 12/03 A3016 RMK A01 T01220025  RH  052%=      5-min Rain = 0
KBI1 161655Z 16017KT 12/03 A3016 RMK A01 T01230025  RH  051%=      5-min Rain = 0
KBI1 161656Z 16019KT 12/03 A3015 RMK A01 T01230025  RH  051%=      5-min Rain = 0
KBI1 161657Z 17018KT 12/03 A3015 RMK A01 T01220025  RH  051%=      5-min Rain = 0
KBI1 161658Z 17018KT 12/03 A3015 RMK A01 T01220025  RH  051%=      5-min Rain = 0
KBI1 161659Z 17016KT 12/03 A3015 RMK A01 T01230025  RH  051%=      5-min Rain = 0
KBI1 161700Z 17017KT 12/03 A3015 RMK A01 T01240026  RH  051%=      5-min Rain = 0
KBI1 161701Z 17017KT 13/03 A3015 RMK A01 T01250025  RH  051%=      5-min Rain = 0
KBI1 161702Z 17017KT 13/03 A3015 RMK A01 T01250026  RH  051%=      5-min Rain = 0
KBI1 161703Z 16012KT 13/03 A3015 RMK A01 T01260027  RH  051%=      5-min Rain = 0
KBI1 161704Z 17011KT 13/03 A3015 RMK A01 T01290029  RH  051%=      5-min Rain = 0
KBI1 161705Z 17017KT 13/03 A3015 RMK A01 T01320029  RH  050%=      5-min Rain = 0
KBI1 161706Z 17015KT 13/03 A3015 RMK A01 T01310027  RH  049%=      5-min Rain = 0
KBI1 161707Z 17015KT 13/03 A3015 RMK A01 T01300027  RH  050%=      5-min Rain = 0
KBI1 161708Z 18013KT 13/03 A3015 RMK A01 T01300027  RH  050%=      5-min Rain = 0
KBI1 161709Z 18012KT 13/03 A3015 RMK A01 T01310029  RH  050%=      5-min Rain = 0
KBI1 161710Z 17015G20KT 13/03 A3015 RMK A01 T01330029  RH  049%=      5-min Rain = 0
KBI1 161711Z 17016KT 13/03 A3015 RMK A01 T01320027  RH  049%=      5-min Rain = 0
KBI1 161712Z 17014KT 13/03 A3015 RMK A01 T01290026  RH  049%=      5-min Rain = 0
KBI1 161713Z 17016KT 13/03 A3015 RMK A01 T01290027  RH  050%=      5-min Rain = 0
KBI1 161714Z 17014KT 13/03 A3015 RMK A01 T01280027  RH  050%=      5-min Rain = 0
KBI1 161715Z 17015KT 13/03 A3015 RMK A01 T01280028  RH  050%=      5-min Rain = 0
KBI1 161716Z 17017KT 13/03 A3014 RMK A01 T01280027  RH  050%=      5-min Rain = 0
KBI1 161717Z 18015KT 13/03 A3014 RMK A01 T01280027  RH  050%=      5-min Rain = 0
KBI1 161718Z 18015KT 13/03 A3014 RMK A01 T01280028  RH  051%=      5-min Rain = 0
KBI1 161719Z 18015KT 13/03 A3014 RMK A01 T01290028  RH  050%=      5-min Rain = 0
KBI1 161720Z 17016KT 13/03 A3014 RMK A01 T01300028  RH  050%=      5-min Rain = 0
KBI1 161721Z 17014KT 13/03 A3014 RMK A01 T01300029  RH  050%=      5-min Rain = 0
KBI1 161722Z 18014KT 13/03 A3014 RMK A01 T01320031  RH  050%=      5-min Rain = 0
KBI1 161723Z 18016KT 14/03 A3014 RMK A01 T01350030  RH  049%=      5-min Rain = 0
KBI1 161724Z 18016KT 13/03 A3014 RMK A01 T01330028  RH  049%=      5-min Rain = 0
KBI1 161725Z 18014KT 13/03 A3014 RMK A01 T01340030  RH  049%=      5-min Rain = 0
KBI1 161726Z 17015G21KT 14/03 A3014 RMK A01 T01360031  RH  049%=      5-min Rain = 0
KBI1 161727Z 17015KT 14/03 A3014 RMK A01 T01370030  RH  049%=      5-min Rain = 0
KBI1 161728Z 17016KT 14/03 A3014 RMK A01 T01350029  RH  048%=      5-min Rain = 0
KBI1 161729Z 17015KT 13/03 A3014 RMK A01 T01340029  RH  049%=      5-min Rain = 0
KBI1 161730Z 17011KT 13/03 A3014 RMK A01 T01340029  RH  049%=      5-min Rain = 0
KBI1 161731Z 17013KT 14/03 A3014 RMK A01 T01370032  RH  049%=      5-min Rain = 0
KBI1 161732Z 18012KT 14/03 A3014 RMK A01 T01400032  RH  048%=      5-min Rain = 0
KBI1 161733Z 19014KT 14/03 A3014 RMK A01 T01420032  RH  047%=      5-min Rain = 0
KBI1 161734Z 18011G16KT 14/03 A3014 RMK A01 T01420030  RH  047%=      5-min Rain = 0
KBI1 161735Z 16015KT 14/03 A3014 RMK A01 T01420031  RH  047%=      5-min Rain = 0
KBI1 161736Z 18014KT 14/03 A3014 RMK A01 T01410030  RH  047%=      5-min Rain = 0
KBI1 161737Z 17014KT 14/03 A3014 RMK A01 T01390029  RH  047%=      5-min Rain = 0
KBI1 161738Z 17014KT 14/03 A3014 RMK A01 T01370029  RH  048%=      5-min Rain = 0
KBI1 161739Z 19011KT 14/03 A3014 RMK A01 T01380031  RH  049%=      5-min Rain = 0
KBI1 161740Z 19014KT 14/03 A3013 RMK A01 T01410032  RH  048%=      5-min Rain = 0
KBI1 161741Z 17017KT 14/03 A3013 RMK A01 T01410032  RH  048%=      5-min Rain = 0
KBI1 161742Z 17017KT 14/03 A3013 RMK A01 T01410031  RH  048%=      5-min Rain = 0
KBI1 161743Z 18016KT 14/03 A3013 RMK A01 T01390031  RH  048%=      5-min Rain = 0
KBI1 161744Z 18014KT 14/03 A3013 RMK A01 T01400031  RH  048%=      5-min Rain = 0
KBI1 161745Z 18013KT 14/03 A3013 RMK A01 T01390031  RH  048%=      5-min Rain = 0
KBI1 161746Z 16015KT 14/03 A3013 RMK A01 T01380030  RH  048%=      5-min Rain = 0
KBI1 161747Z 16013KT 14/03 A3013 RMK A01 T01370030  RH  048%=      5-min Rain = 0
KBI1 161748Z 17013KT 14/03 A3013 RMK A01 T01380031  RH  049%=      5-min Rain = 0
KBI1 161749Z 18013KT 14/03 A3013 RMK A01 T01400032  RH  048%=      5-min Rain = 0
KBI1 161750Z 17015KT 14/03 A3013 RMK A01 T01410032  RH  048%=      5-min Rain = 0
KBI1 161751Z 17012KT 14/03 A3013 RMK A01 T01420032  RH  048%=      5-min Rain = 0
KBI1 161752Z 17010G16KT 14/03 A3013 RMK A01 T01440034  RH  048%=      5-min Rain = 0
KBI1 161753Z 18017KT 15/03 A3013 RMK A01 T01460032  RH  046%=      5-min Rain = 0
KBI1 161754Z 18016KT 14/03 A3013 RMK A01 T01440032  RH  047%=      5-min Rain = 0
KBI1 161755Z 17012KT 14/03 A3013 RMK A01 T01430031  RH  047%=      5-min Rain = 0
KBI1 161756Z 17014KT 14/03 A3013 RMK A01 T01430033  RH  047%=      5-min Rain = 0
KBI1 161757Z 17013KT 14/03 A3013 RMK A01 T01440032  RH  047%=      5-min Rain = 0
KBI1 161758Z 17012KT 15/04 A3013 RMK A01 T01460035  RH  047%=      5-min Rain = 0
KBI1 161759Z 17014KT 15/03 A3012 RMK A01 T01490034  RH  046%=      5-min Rain = 0
KBI1 161800Z 16014KT 15/03 A3012 RMK A01 T01470033  RH  046%=      5-min Rain = 0
KBI1 161801Z 17011KT 15/03 A3012 RMK A01 T01460033  RH  047%=      5-min Rain = 0
KBI1 161802Z 17012KT 15/03 A3013 RMK A01 T01460033  RH  047%=      5-min Rain = 0
KBI1 161803Z 17012G18KT 15/03 A3012 RMK A01 T01470033  RH  046%=      5-min Rain = 0
KBI1 161804Z 18015KT 15/03 A3012 RMK A01 T01470033  RH  046%=      5-min Rain = 0
KBI1 161805Z 18014KT 15/03 A3012 RMK A01 T01470033  RH  046%=      5-min Rain = 0
KBI1 161806Z 18011KT 15/03 A3012 RMK A01 T01450033  RH  047%=      5-min Rain = 0
KBI1 161807Z 19014KT 15/04 A3012 RMK A01 T01500036  RH  047%=      5-min Rain = 0
KBI1 161808Z 17014KT 15/04 A3012 RMK A01 T01520035  RH  045%=      5-min Rain = 0
KBI1 161809Z 17014KT 15/03 A3012 RMK A01 T01500034  RH  046%=      5-min Rain = 0
KBI1 161810Z 17015KT 15/03 A3012 RMK A01 T01480033  RH  046%=      5-min Rain = 0
KBI1 161811Z 17016KT 15/03 A3012 RMK A01 T01470033  RH  046%=      5-min Rain = 0
KBI1 161812Z 16012G17KT 15/03 A3012 RMK A01 T01470034  RH  046%=      5-min Rain = 0
KBI1 161813Z 18013KT 15/03 A3012 RMK A01 T01490034  RH  046%=      5-min Rain = 0
KBI1 161814Z 19016KT 15/03 A3012 RMK A01 T01490034  RH  046%=      5-min Rain = 0
KBI1 161815Z 19015KT 15/03 A3012 RMK A01 T01480033  RH  046%=      5-min Rain = 0
KBI1 161816Z 19014KT 15/03 A3012 RMK A01 T01470033  RH  046%=      5-min Rain = 0
KBI1 161817Z 18011KT 15/03 A3012 RMK A01 T01470032  RH  046%=      5-min Rain = 0
KBI1 161818Z 16013KT 15/04 A3012 RMK A01 T01490035  RH  046%=      5-min Rain = 0
KBI1 161819Z 17015KT 15/04 A3012 RMK A01 T01510035  RH  046%=      5-min Rain = 0
KBI1 161820Z 17016KT 15/04 A3012 RMK A01 T01520035  RH  046%=      5-min Rain = 0
KBI1 161821Z 17015KT 15/03 A3012 RMK A01 T01510034  RH  046%=      5-min Rain = 0
KBI1 161822Z 17014KT 15/03 A3012 RMK A01 T01500034  RH  046%=      5-min Rain = 0
KBI1 161823Z 16011KT 15/03 A3012 RMK A01 T01510034  RH  046%=      5-min Rain = 0
KBI1 161824Z 17014G19KT 15/04 A3012 RMK A01 T01530036  RH  045%=      5-min Rain = 0
KBI1 161825Z 20016KT 16/04 A3012 RMK A01 T01550037  RH  045%=      5-min Rain = 0
KBI1 161826Z 20012G17KT 16/04 A3012 RMK A01 T01560038  RH  045%=      5-min Rain = 0
KBI1 161827Z 19013G18KT 16/04 A3011 RMK A01 T01560038  RH  045%=      5-min Rain = 0
KBI1 161828Z 17016KT 16/04 A3011 RMK A01 T01580037  RH  045%=      5-min Rain = 0
KBI1 161829Z 17013KT 16/04 A3011 RMK A01 T01570035  RH  044%=      5-min Rain = 0
KBI1 161830Z 18015KT 16/04 A3011 RMK A01 T01550036  RH  045%=      5-min Rain = 0
KBI1 161831Z 17016KT 16/04 A3011 RMK A01 T01560037  RH  045%=      5-min Rain = 0
KBI1 161832Z 19014KT 16/04 A3011 RMK A01 T01560035  RH  044%=      5-min Rain = 0
KBI1 161833Z 19012KT 15/04 A3011 RMK A01 T01540035  RH  045%=      5-min Rain = 0
KBI1 161834Z 18013KT 16/04 A3011 RMK A01 T01550035  RH  045%=      5-min Rain = 0
KBI1 161835Z 17011KT 15/03 A3011 RMK A01 T01540034  RH  045%=      5-min Rain = 0
KBI1 161836Z 18013G19KT 16/04 A3011 RMK A01 T01550038  RH  045%=      5-min Rain = 0
KBI1 161837Z 19013KT 16/04 A3011 RMK A01 T01580037  RH  044%=      5-min Rain = 0
KBI1 161838Z 19013KT 16/04 A3011 RMK A01 T01580036  RH  044%=      5-min Rain = 0
KBI1 161839Z 18013G18KT 16/04 A3011 RMK A01 T01570036  RH  044%=      5-min Rain = 0
KBI1 161840Z 18015KT 16/04 A3011 RMK A01 T01580036  RH  044%=      5-min Rain = 0
KBI1 161841Z 18015KT 16/04 A3011 RMK A01 T01580036  RH  044%=      5-min Rain = 0
KBI1 161842Z 18013KT 16/04 A3011 RMK A01 T01570035  RH  044%=      5-min Rain = 0
KBI1 161843Z 18013G19KT 16/03 A301 RMK A01 T01550034  RH  045%=      5-min Rain = 0
KBI1 161844Z 18013KT 15/04 A301 RMK A01 T01540036  RH  045%=      5-min Rain = 0
KBI1 161845Z 16012KT 16/04 A301 RMK A01 T01590038  RH  045%=      5-min Rain = 0
KBI1 161846Z 17015KT 16/04 A301 RMK A01 T01600037  RH  044%=      5-min Rain = 0
KBI1 161847Z 16015KT 16/04 A301 RMK A01 T01580035  RH  044%=      5-min Rain = 0
KBI1 161848Z 17015KT 16/04 A301 RMK A01 T01570036  RH  044%=      5-min Rain = 0
KBI1 161849Z 16015KT 16/04 A301 RMK A01 T01570036  RH  044%=      5-min Rain = 0
KBI1 161850Z 17011KT 16/04 A3009 RMK A01 T01570037  RH  045%=      5-min Rain = 0
KBI1 161851Z 18011G16KT 16/04 A3009 RMK A01 T01610041  RH  045%=      5-min Rain = 0
KBI1 161852Z 18016KT 16/04 A3009 RMK A01 T01620039  RH  044%=      5-min Rain = 0
KBI1 161853Z 18014KT 16/04 A3009 RMK A01 T01600039  RH  044%=      5-min Rain = 0
KBI1 161854Z 18012KT 16/04 A3009 RMK A01 T01600039  RH  044%=      5-min Rain = 0
KBI1 161855Z 19015KT 16/04 A3009 RMK A01 T01640041  RH  044%=      5-min Rain = 0
KBI1 161856Z 19013G19KT 16/04 A3009 RMK A01 T01630039  RH  044%=      5-min Rain = 0
KBI1 161857Z 19017KT 16/04 A3009 RMK A01 T01630039  RH  044%=      5-min Rain = 0
KBI1 161858Z 19017KT 16/04 A3009 RMK A01 T01620037  RH  043%=      5-min Rain = 0
KBI1 161859Z 18014KT 16/04 A3009 RMK A01 T01610037  RH  044%=      5-min Rain = 0
KBI1 161900Z 17018KT 16/04 A3009 RMK A01 T01630038  RH  043%=      5-min Rain = 0
KBI1 161901Z 17014G20KT 16/04 A3009 RMK A01 T01610036  RH  043%=      5-min Rain = 0
KBI1 161902Z 19014KT 16/04 A3009 RMK A01 T01620040  RH  044%=      5-min Rain = 0
KBI1 161903Z 18015KT 16/04 A3008 RMK A01 T01630039  RH  043%=      5-min Rain = 0
KBI1 161904Z 17013KT 17/04 A3008 RMK A01 T01650040  RH  043%=      5-min Rain = 0
KBI1 161905Z 16014G19KT 17/04 A3008 RMK A01 T01680040  RH  043%=      5-min Rain = 0
KBI1 161906Z 16015KT 17/04 A3008 RMK A01 T01660037  RH  042%=      5-min Rain = 0
KBI1 161907Z 17015G20KT 16/04 A3008 RMK A01 T01630038  RH  043%=      5-min Rain = 0
KBI1 161908Z 17015G20KT 16/04 A3008 RMK A01 T01630038  RH  043%=      5-min Rain = 0
KBI1 161909Z 17018KT 16/04 A3008 RMK A01 T01630038  RH  043%=      5-min Rain = 0
KBI1 161910Z 17018KT 16/04 A3008 RMK A01 T01620039  RH  044%=      5-min Rain = 0
KBI1 161911Z 18016G21KT 16/04 A3008 RMK A01 T01610039  RH  044%=      5-min Rain = 0
KBI1 161912Z 18012KT 16/04 A3008 RMK A01 T01620042  RH  045%=      5-min Rain = 0
KBI1 161913Z 18014KT 17/04 A3008 RMK A01 T01660042  RH  044%=      5-min Rain = 0
KBI1 161914Z 18015KT 17/04 A3008 RMK A01 T01650038  RH  043%=      5-min Rain = 0
KBI1 161915Z 17016KT 16/04 A3007 RMK A01 T01620038  RH  044%=      5-min Rain = 0
KBI1 161916Z 18016G21KT 16/04 A3007 RMK A01 T01600038  RH  044%=      5-min Rain = 0
KBI1 161917Z 18017KT 16/04 A3007 RMK A01 T01600039  RH  044%=      5-min Rain = 0
KBI1 161918Z 18018KT 16/04 A3007 RMK A01 T01600039  RH  044%=      5-min Rain = 0
KBI1 161919Z 18017KT 16/04 A3007 RMK A01 T01610039  RH  044%=      5-min Rain = 0
KBI1 161920Z 19013KT 16/04 A3007 RMK A01 T01610041  RH  045%=      5-min Rain = 0
KBI1 161921Z 19011KT 17/04 A3007 RMK A01 T01650042  RH  044%=      5-min Rain = 0
KBI1 161922Z 19012KT 17/04 A3007 RMK A01 T01680042  RH  043%=      5-min Rain = 0
KBI1 161923Z 18015KT 17/04 A3007 RMK A01 T01690040  RH  042%=      5-min Rain = 0
KBI1 161924Z 18015KT 17/04 A3007 RMK A01 T01690041  RH  043%=      5-min Rain = 0
KBI1 161925Z 19017KT 17/04 A3007 RMK A01 T01690042  RH  043%=      5-min Rain = 0
KBI1 161926Z 19014G19KT 17/04 A3007 RMK A01 T01680041  RH  043%=      5-min Rain = 0
KBI1 161927Z 19014KT 17/04 A3007 RMK A01 T01680042  RH  043%=      5-min Rain = 0
KBI1 161928Z 19012KT 17/04 A3007 RMK A01 T01710044  RH  043%=      5-min Rain = 0
KBI1 161929Z 19013KT 17/04 A3007 RMK A01 T01730041  RH  042%=      5-min Rain = 0
KBI1 161930Z 18013KT 17/04 A3007 RMK A01 T01720042  RH  042%=      5-min Rain = 0
KBI1 161931Z 17013KT 17/04 A3007 RMK A01 T01740043  RH  042%=      5-min Rain = 0
KBI1 161932Z 18013KT 17/04 A3007 RMK A01 T01740043  RH  042%=      5-min Rain = 0
KBI1 161933Z 18015KT 17/04 A3007 RMK A01 T01740043  RH  042%=      5-min Rain = 0
KBI1 161934Z 18012KT 17/04 A3007 RMK A01 T01730043  RH  042%=      5-min Rain = 0
KBI1 161935Z 17015G21KT 17/04 A3006 RMK A01 T01740044  RH  042%=      5-min Rain = 0
KBI1 161936Z 18018G23KT 18/04 A3006 RMK A01 T01750043  RH  042%=      5-min Rain = 0
KBI1 161937Z 17016KT 17/04 A3006 RMK A01 T01740043  RH  042%=      5-min Rain = 0
KBI1 161938Z 19016KT 17/04 A3006 RMK A01 T01720043  RH  042%=      5-min Rain = 0
KBI1 161939Z 18015KT 17/04 A3006 RMK A01 T01710044  RH  043%=      5-min Rain = 0
KBI1 161940Z 19014KT 17/04 A3006 RMK A01 T01700044  RH  043%=      5-min Rain = 0
KBI1 161941Z 19015KT 17/04 A3006 RMK A01 T01710043  RH  043%=      5-min Rain = 0
KBI1 161942Z 18013KT 17/04 A3006 RMK A01 T01710044  RH  043%=      5-min Rain = 0
KBI1 161943Z 18015G20KT 17/05 A3006 RMK A01 T01730045  RH  043%=      5-min Rain = 0
KBI1 161944Z 19011KT 17/05 A3006 RMK A01 T01730045  RH  042%=      5-min Rain = 0
KBI1 161945Z 18010G18KT 17/05 A3006 RMK A01 T01740046  RH  043%=      5-min Rain = 0
KBI1 161946Z 19014KT 18/05 A3006 RMK A01 T01760046  RH  042%=      5-min Rain = 0
KBI1 161947Z 17013KT 18/05 A3006 RMK A01 T01750046  RH  042%=      5-min Rain = 0
KBI1 161948Z 18018KT 18/05 A3006 RMK A01 T01760047  RH  043%=      5-min Rain = 0
KBI1 161949Z 18018KT 17/05 A3006 RMK A01 T01740045  RH  042%=      5-min Rain = 0
KBI1 161950Z 18013KT 17/05 A3006 RMK A01 T01720045  RH  043%=      5-min Rain = 0
KBI1 161951Z 18014KT 17/05 A3006 RMK A01 T01730047  RH  043%=      5-min Rain = 0
KBI1 161952Z 18016KT 18/05 A3006 RMK A01 T01760048  RH  043%=      5-min Rain = 0
KBI1 161953Z 18013G18KT 18/05 A3006 RMK A01 T01760047  RH  042%=      5-min Rain = 0
KBI1 161954Z 19012KT 18/05 A3006 RMK A01 T01770049  RH  043%=      5-min Rain = 0
KBI1 161955Z 20014KT 18/05 A3005 RMK A01 T01780048  RH  042%=      5-min Rain = 0
KBI1 161956Z 17016G21KT 18/05 A3005 RMK A01 T01780046  RH  042%=      5-min Rain = 0
KBI1 161957Z 17016KT 18/05 A3005 RMK A01 T01760045  RH  042%=      5-min Rain = 0
KBI1 161958Z 17016KT 17/05 A3005 RMK A01 T01740046  RH  042%=      5-min Rain = 0
KBI1 161959Z 18013KT 17/05 A3005 RMK A01 T01740046  RH  043%=      5-min Rain = 0
KBI1 162000Z 18015KT 18/05 A3005 RMK A01 T01750046  RH  043%=      5-min Rain = 0
KBI1 162001Z 19016KT 17/05 A3005 RMK A01 T01740046  RH  043%=      5-min Rain = 0
KBI1 162002Z 20013KT 17/05 A3005 RMK A01 T01740047  RH  043%=      5-min Rain = 0
KBI1 162003Z 21016KT 18/05 A3005 RMK A01 T01760049  RH  043%=      5-min Rain = 0
KBI1 162004Z 20015G20KT 18/05 A3005 RMK A01 T01760049  RH  043%=      5-min Rain = 0
KBI1 162005Z 21015G20KT 18/05 A3005 RMK A01 T01750049  RH  043%=      5-min Rain = 0
KBI1 162006Z 21013KT 18/05 A3005 RMK A01 T01750049  RH  043%=      5-min Rain = 0
KBI1 162007Z 20014KT 18/05 A3005 RMK A01 T01760050  RH  043%=      5-min Rain = 0
KBI1 162008Z 18015G20KT 18/05 A3005 RMK A01 T01780050  RH  043%=      5-min Rain = 0
KBI1 162009Z 18013KT 18/05 A3005 RMK A01 T01790049  RH  042%=      5-min Rain = 0
KBI1 162010Z 18013KT 18/05 A3005 RMK A01 T01790049  RH  042%=      5-min Rain = 0
KBI1 162011Z 17015KT 18/05 A3005 RMK A01 T01790049  RH  042%=      5-min Rain = 0
KBI1 162012Z 17013G20KT 18/05 A3005 RMK A01 T01800049  RH  042%=      5-min Rain = 0
KBI1 162013Z 19017KT 18/05 A3005 RMK A01 T01790049  RH  042%=      5-min Rain = 0
KBI1 162014Z 19017KT 18/05 A3005 RMK A01 T01780050  RH  043%=      5-min Rain = 0
KBI1 162015Z 19015KT 18/05 A3005 RMK A01 T01790050  RH  042%=      5-min Rain = 0
KBI1 162016Z 19015KT 18/05 A3005 RMK A01 T01780049  RH  043%=      5-min Rain = 0
KBI1 162017Z 19014KT 18/05 A3005 RMK A01 T01760048  RH  043%=      5-min Rain = 0
KBI1 162018Z 20016G21KT 18/05 A3005 RMK A01 T01760049  RH  043%=      5-min Rain = 0
KBI1 162019Z 20015KT 18/05 A3005 RMK A01 T01760049  RH  043%=      5-min Rain = 0
KBI1 162020Z 19016KT 18/05 A3004 RMK A01 T01760049  RH  043%=      5-min Rain = 0
KBI1 162021Z 17015KT 18/05 A3004 RMK A01 T01770049  RH  043%=      5-min Rain = 0
KBI1 162022Z 17017G24KT 18/05 A3004 RMK A01 T01800050  RH  042%=      5-min Rain = 0
KBI1 162023Z 19016G21KT 18/05 A3004 RMK A01 T01810050  RH  042%=      5-min Rain = 0
KBI1 162024Z 20016KT 18/05 A3004 RMK A01 T01810049  RH  042%=      5-min Rain = 0
KBI1 162025Z 19014KT 18/05 A3004 RMK A01 T01790049  RH  042%=      5-min Rain = 0
KBI1 162026Z 17011KT 18/05 A3004 RMK A01 T01790049  RH  042%=      5-min Rain = 0
KBI1 162027Z 18015G20KT 18/05 A3004 RMK A01 T01790049  RH  042%=      5-min Rain = 0
KBI1 162028Z 18016KT 18/05 A3004 RMK A01 T01780047  RH  042%=      5-min Rain = 0
KBI1 162029Z 18013KT 18/05 A3004 RMK A01 T01760046  RH  042%=      5-min Rain = 0
KBI1 162030Z 17015KT 18/05 A3004 RMK A01 T01750046  RH  042%=      5-min Rain = 0
KBI1 162031Z 16015KT 18/05 A3004 RMK A01 T01750046  RH  043%=      5-min Rain = 0
KBI1 162032Z 17011KT 18/05 A3004 RMK A01 T01750048  RH  043%=      5-min Rain = 0
KBI1 162033Z 18013G18KT 18/05 A3004 RMK A01 T01770048  RH  043%=      5-min Rain = 0
KBI1 162034Z 20016KT 18/05 A3004 RMK A01 T01770048  RH  042%=      5-min Rain = 0
KBI1 162035Z 19012G17KT 17/05 A3004 RMK A01 T01740047  RH  043%=      5-min Rain = 0
KBI1 162036Z 19014KT 17/05 A3004 RMK A01 T01740047  RH  043%=      5-min Rain = 0
KBI1 162037Z 18014KT 17/05 A3004 RMK A01 T01740046  RH  043%=      5-min Rain = 0
KBI1 162038Z 18014KT 17/05 A3004 RMK A01 T01740046  RH  043%=      5-min Rain = 0
KBI1 162039Z 18013KT 17/05 A3003 RMK A01 T01740047  RH  043%=      5-min Rain = 0
KBI1 162040Z 18014KT 18/05 A3003 RMK A01 T01750049  RH  043%=      5-min Rain = 0
KBI1 162041Z 19016KT 18/05 A3003 RMK A01 T01760048  RH  043%=      5-min Rain = 0
KBI1 162042Z 19015KT 17/05 A3003 RMK A01 T01740048  RH  043%=      5-min Rain = 0
KBI1 162043Z 19010KT 17/05 A3003 RMK A01 T01730048  RH  044%=      5-min Rain = 0
KBI1 162044Z 20013KT 17/05 A3003 RMK A01 T01730047  RH  043%=      5-min Rain = 0
KBI1 162045Z 17012KT 17/05 A3003 RMK A01 T01740049  RH  043%=      5-min Rain = 0
KBI1 162046Z 18013KT 18/05 A3003 RMK A01 T01760047  RH  043%=      5-min Rain = 0
KBI1 162047Z 19011KT 18/05 A3003 RMK A01 T01750047  RH  043%=      5-min Rain = 0
KBI1 162048Z 18015KT 18/05 A3003 RMK A01 T01760047  RH  043%=      5-min Rain = 0
KBI1 162049Z 19013KT 18/05 A3003 RMK A01 T01760048  RH  043%=      5-min Rain = 0
KBI1 162050Z 19013KT 18/05 A3003 RMK A01 T01760048  RH  043%=      5-min Rain = 0
KBI1 162051Z 20015KT 18/05 A3003 RMK A01 T01770049  RH  043%=      5-min Rain = 0
KBI1 162052Z 20013KT 18/05 A3003 RMK A01 T01770048  RH  043%=      5-min Rain = 0
KBI1 162053Z 20016G21KT 18/05 A3003 RMK A01 T01770048  RH  043%=      5-min Rain = 0
KBI1 162054Z 18016KT 18/05 A3003 RMK A01 T01760047  RH  043%=      5-min Rain = 0
KBI1 162055Z 19012KT 18/05 A3003 RMK A01 T01760047  RH  043%=      5-min Rain = 0
KBI1 162056Z 19012KT 18/05 A3003 RMK A01 T01750047  RH  043%=      5-min Rain = 0
KBI1 162057Z 19011KT 18/05 A3003 RMK A01 T01770049  RH  043%=      5-min Rain = 0
KBI1 162058Z 19013KT 18/05 A3003 RMK A01 T01790049  RH  042%=      5-min Rain = 0
KBI1 162059Z 20013KT 18/05 A3003 RMK A01 T01780048  RH  042%=      5-min Rain = 0
KBI1 162100Z 20012KT 18/05 A3003 RMK A01 T01770048  RH  043%=      5-min Rain = 0
KBI1 162101Z 19013KT 18/05 A3003 RMK A01 T01770049  RH  043%=      5-min Rain = 0
KBI1 162102Z 17012KT 18/05 A3003 RMK A01 T01770047  RH  042%=      5-min Rain = 0
KBI1 162103Z 19011G16KT 18/05 A3003 RMK A01 T01760048  RH  043%=      5-min Rain = 0
KBI1 162104Z 19015G21KT 18/05 A3003 RMK A01 T01770048  RH  042%=      5-min Rain = 0
KBI1 162105Z 19014G19KT 18/05 A3003 RMK A01 T01760046  RH  042%=      5-min Rain = 0
KBI1 162106Z 19013KT 18/05 A3003 RMK A01 T01750046  RH  042%=      5-min Rain = 0
KBI1 162107Z 19011KT 17/05 A3003 RMK A01 T01740045  RH  042%=      5-min Rain = 0
KBI1 162108Z 19009KT 17/05 A3003 RMK A01 T01730046  RH  043%=      5-min Rain = 0
KBI1 162109Z 18010KT 17/05 A3003 RMK A01 T01740047  RH  043%=      5-min Rain = 0
KBI1 162110Z 17013G18KT 18/05 A3003 RMK A01 T01770048  RH  043%=      5-min Rain = 0
KBI1 162111Z 18015G20KT 18/05 A3003 RMK A01 T01760046  RH  042%=      5-min Rain = 0
KBI1 162112Z 18013KT 17/05 A3004 RMK A01 T01740047  RH  043%=      5-min Rain = 0
KBI1 162113Z 19016KT 17/05 A3003 RMK A01 T01740046  RH  043%=      5-min Rain = 0
KBI1 162114Z 18015KT 17/05 A3004 RMK A01 T01730046  RH  043%=      5-min Rain = 0
KBI1 162115Z 19016KT 17/05 A3003 RMK A01 T01710045  RH  043%=      5-min Rain = 0
KBI1 162116Z 20013KT 17/05 A3003 RMK A01 T01700045  RH  043%=      5-min Rain = 0
KBI1 162117Z 20014KT 17/05 A3003 RMK A01 T01700045  RH  044%=      5-min Rain = 0
KBI1 162118Z 19013KT 17/05 A3003 RMK A01 T01700045  RH  043%=      5-min Rain = 0
KBI1 162119Z 19016G21KT 17/05 A3004 RMK A01 T01710046  RH  043%=      5-min Rain = 0
KBI1 162120Z 18013G18KT 17/05 A3004 RMK A01 T01710045  RH  043%=      5-min Rain = 0
KBI1 162121Z 19012KT 17/05 A3004 RMK A01 T01700045  RH  043%=      5-min Rain = 0
KBI1 162122Z 19015KT 17/05 A3004 RMK A01 T01700045  RH  043%=      5-min Rain = 0
KBI1 162123Z 18012KT 17/04 A3004 RMK A01 T01700044  RH  043%=      5-min Rain = 0
KBI1 162124Z 19014KT 17/05 A3003 RMK A01 T01700045  RH  044%=      5-min Rain = 0
KBI1 162125Z 20013KT 17/04 A3003 RMK A01 T01690044  RH  044%=      5-min Rain = 0
KBI1 162126Z 19013KT 17/05 A3003 RMK A01 T01690045  RH  044%=      5-min Rain = 0
KBI1 162127Z 18013KT 17/05 A3003 RMK A01 T01690045  RH  044%=      5-min Rain = 0
KBI1 162128Z 19012KT 17/05 A3003 RMK A01 T01690045  RH  044%=      5-min Rain = 0
KBI1 162129Z 19012KT 17/05 A3003 RMK A01 T01680045  RH  044%=      5-min Rain = 0
KBI1 162130Z 19012KT 17/05 A3003 RMK A01 T01690045  RH  044%=      5-min Rain = 0
KBI1 162131Z 18013KT 17/05 A3003 RMK A01 T01690045  RH  044%=      5-min Rain = 0
KBI1 162132Z 18012KT 17/05 A3003 RMK A01 T01690045  RH  044%=      5-min Rain = 0
KBI1 162133Z 18015KT 17/05 A3003 RMK A01 T01690046  RH  044%=      5-min Rain = 0
KBI1 162134Z 18014KT 17/05 A3003 RMK A01 T01690045  RH  044%=      5-min Rain = 0
KBI1 162135Z 20013KT 17/05 A3003 RMK A01 T01680045  RH  044%=      5-min Rain = 0
KBI1 162136Z 19010KT 17/05 A3003 RMK A01 T01680045  RH  044%=      5-min Rain = 0
KBI1 162137Z 18010KT 17/05 A3003 RMK A01 T01690046  RH  044%=      5-min Rain = 0
KBI1 162138Z 18015KT 17/05 A3003 RMK A01 T01690046  RH  044%=      5-min Rain = 0
KBI1 162139Z 18014KT 17/05 A3003 RMK A01 T01690045  RH  044%=      5-min Rain = 0
KBI1 162140Z 18016KT 17/05 A3003 RMK A01 T01680045  RH  044%=      5-min Rain = 0
KBI1 162141Z 19015KT 17/04 A3003 RMK A01 T01670044  RH  044%=      5-min Rain = 0
KBI1 162142Z 18013KT 17/05 A3003 RMK A01 T01670045  RH  044%=      5-min Rain = 0
KBI1 162143Z 18012KT 17/05 A3003 RMK A01 T01670045  RH  044%=      5-min Rain = 0
KBI1 162144Z 18011KT 17/05 A3003 RMK A01 T01680046  RH  044%=      5-min Rain = 0
KBI1 162145Z 18012G17KT 17/05 A3003 RMK A01 T01680046  RH  044%=      5-min Rain = 0
KBI1 162146Z 19015KT 17/05 A3003 RMK A01 T01680045  RH  044%=      5-min Rain = 0
KBI1 162147Z 19014KT 17/05 A3003 RMK A01 T01680045  RH  044%=      5-min Rain = 0
KBI1 162148Z 19014KT 17/04 A3003 RMK A01 T01680044  RH  044%=      5-min Rain = 0
KBI1 162149Z 19014KT 17/04 A3003 RMK A01 T01670044  RH  044%=      5-min Rain = 0
KBI1 162150Z 18012KT 17/05 A3003 RMK A01 T01670045  RH  044%=      5-min Rain = 0
KBI1 162151Z 18015G20KT 17/05 A3003 RMK A01 T01680047  RH  045%=      5-min Rain = 0
KBI1 162152Z 18014KT 17/05 A3003 RMK A01 T01680046  RH  044%=      5-min Rain = 0
KBI1 162153Z 19013KT 17/05 A3003 RMK A01 T01680046  RH  044%=      5-min Rain = 0
KBI1 162154Z 19014KT 17/05 A3003 RMK A01 T01680046  RH  045%=      5-min Rain = 0
KBI1 162155Z 18015KT 17/05 A3003 RMK A01 T01680046  RH  044%=      5-min Rain = 0
KBI1 162156Z 19014KT 17/05 A3003 RMK A01 T01670046  RH  045%=      5-min Rain = 0
KBI1 162157Z 18011KT 17/05 A3003 RMK A01 T01670046  RH  045%=      5-min Rain = 0
KBI1 162158Z 18013KT 17/05 A3003 RMK A01 T01680046  RH  045%=      5-min Rain = 0
KBI1 162159Z 18013KT 17/05 A3003 RMK A01 T01680046  RH  044%=      5-min Rain = 0
KBI1 162200Z 19013KT 17/05 A3003 RMK A01 T01680046  RH  044%=      5-min Rain = 0
KBI1 162201Z 18014KT 17/05 A3003 RMK A01 T01680046  RH  044%=      5-min Rain = 0
KBI1 162202Z 19014KT 17/05 A3003 RMK A01 T01670045  RH  044%=      5-min Rain = 0
KBI1 162203Z 18011KT 17/05 A3003 RMK A01 T01670045  RH  044%=      5-min Rain = 0
KBI1 162204Z 19009KT 17/05 A3003 RMK A01 T01670045  RH  044%=      5-min Rain = 0
KBI1 162205Z 18011KT 17/05 A3003 RMK A01 T01670045  RH  044%=      5-min Rain = 0
KBI1 162206Z 18011KT 17/04 A3003 RMK A01 T01680044  RH  044%=      5-min Rain = 0
KBI1 162207Z 17012KT 17/04 A3003 RMK A01 T01670044  RH  044%=      5-min Rain = 0
KBI1 162208Z 17010G15KT 17/04 A3003 RMK A01 T01670043  RH  044%=      5-min Rain = 0
KBI1 162209Z 17010KT 17/04 A3003 RMK A01 T01660043  RH  044%=      5-min Rain = 0
KBI1 162210Z 17011KT 17/04 A3003 RMK A01 T01660043  RH  044%=      5-min Rain = 0
KBI1 162211Z 17013G18KT 17/04 A3003 RMK A01 T01660042  RH  044%=      5-min Rain = 0
KBI1 162212Z 18014KT 17/04 A3003 RMK A01 T01650042  RH  044%=      5-min Rain = 0
KBI1 162213Z 18013KT 16/04 A3003 RMK A01 T01640042  RH  044%=      5-min Rain = 0
KBI1 162214Z 18012KT 16/04 A3003 RMK A01 T01630042  RH  044%=      5-min Rain = 0
KBI1 162215Z 17011KT 16/04 A3003 RMK A01 T01630042  RH  045%=      5-min Rain = 0
KBI1 162216Z 16012KT 16/04 A3003 RMK A01 T01620042  RH  045%=      5-min Rain = 0
KBI1 162217Z 17011KT 16/04 A3003 RMK A01 T01620041  RH  045%=      5-min Rain = 0
KBI1 162218Z 18010KT 16/04 A3003 RMK A01 T01620042  RH  045%=      5-min Rain = 0
KBI1 162219Z 18008KT 16/04 A3003 RMK A01 T01620042  RH  045%=      5-min Rain = 0
KBI1 162220Z 17007KT 16/04 A3003 RMK A01 T01620043  RH  045%=      5-min Rain = 0
KBI1 162221Z 17008KT 16/04 A3003 RMK A01 T01620042  RH  045%=      5-min Rain = 0
KBI1 162222Z 17011G16KT 16/04 A3003 RMK A01 T01620042  RH  045%=      5-min Rain = 0
KBI1 162223Z 17014KT 16/04 A3003 RMK A01 T01610042  RH  045%=      5-min Rain = 0
KBI1 162224Z 19014KT 16/04 A3003 RMK A01 T01600041  RH  045%=      5-min Rain = 0
KBI1 162225Z 17010KT 16/04 A3003 RMK A01 T01590041  RH  045%=      5-min Rain = 0
KBI1 162226Z 18012KT 16/04 A3003 RMK A01 T01590042  RH  046%=      5-min Rain = 0
KBI1 162227Z 17010KT 16/04 A3003 RMK A01 T01590042  RH  046%=      5-min Rain = 0
KBI1 162228Z 18011KT 16/04 A3003 RMK A01 T01590041  RH  046%=      5-min Rain = 0
KBI1 162229Z 17010KT 16/04 A3003 RMK A01 T01580041  RH  046%=      5-min Rain = 0
KBI1 162230Z 18008KT 16/04 A3003 RMK A01 T01580041  RH  046%=      5-min Rain = 0
KBI1 162231Z 17011KT 16/04 A3003 RMK A01 T01580042  RH  046%=      5-min Rain = 0
KBI1 162232Z 18010KT 16/04 A3004 RMK A01 T01580041  RH  046%=      5-min Rain = 0
KBI1 162233Z 18010KT 16/04 A3004 RMK A01 T01570041  RH  046%=      5-min Rain = 0
KBI1 162234Z 17009KT 16/04 A3004 RMK A01 T01570041  RH  046%=      5-min Rain = 0
KBI1 162235Z 18011KT 16/04 A3004 RMK A01 T01570041  RH  046%=      5-min Rain = 0
KBI1 162236Z 17011KT 16/04 A3004 RMK A01 T01570040  RH  046%=      5-min Rain = 0
KBI1 162237Z 16012KT 16/04 A3004 RMK A01 T01560040  RH  046%=      5-min Rain = 0
KBI1 162238Z 16012KT 16/04 A3003 RMK A01 T01560039  RH  046%=      5-min Rain = 0
KBI1 162239Z 17013KT 16/04 A3004 RMK A01 T01550039  RH  046%=      5-min Rain = 0
KBI1 162240Z 17012KT 15/04 A3004 RMK A01 T01540039  RH  046%=      5-min Rain = 0
KBI1 162241Z 17010KT 15/04 A3004 RMK A01 T01540039  RH  046%=      5-min Rain = 0
KBI1 162242Z 17009KT 15/04 A3004 RMK A01 T01540040  RH  046%=      5-min Rain = 0
KBI1 162243Z 18011KT 15/04 A3004 RMK A01 T01540040  RH  047%=      5-min Rain = 0
KBI1 162244Z 18010KT 15/04 A3004 RMK A01 T01530040  RH  047%=      5-min Rain = 0
KBI1 162245Z 18009KT 15/04 A3004 RMK A01 T01530040  RH  047%=      5-min Rain = 0
KBI1 162246Z 18008KT 15/04 A3004 RMK A01 T01530041  RH  047%=      5-min Rain = 0
KBI1 162247Z 18011KT 15/04 A3004 RMK A01 T01530040  RH  047%=      5-min Rain = 0
KBI1 162248Z 18010KT 15/04 A3004 RMK A01 T01530040  RH  047%=      5-min Rain = 0
KBI1 162249Z 17011KT 15/04 A3004 RMK A01 T01520040  RH  047%=      5-min Rain = 0
KBI1 162250Z 18014KT 15/04 A3004 RMK A01 T01520040  RH  047%=      5-min Rain = 0
KBI1 162251Z 18014KT 15/04 A3004 RMK A01 T01520039  RH  047%=      5-min Rain = 0
KBI1 162252Z 18016KT 15/04 A3004 RMK A01 T01520039  RH  047%=      5-min Rain = 0
KBI1 162253Z 17012KT 15/04 A3004 RMK A01 T01510039  RH  047%=      5-min Rain = 0
KBI1 162254Z 17010KT 15/04 A3004 RMK A01 T01510040  RH  047%=      5-min Rain = 0
KBI1 162255Z 17009KT 15/04 A3004 RMK A01 T01510040  RH  047%=      5-min Rain = 0
KBI1 162256Z 17008KT 15/04 A3004 RMK A01 T01510040  RH  048%=      5-min Rain = 0
KBI1 162257Z 17011KT 15/04 A3004 RMK A01 T01500040  RH  048%=      5-min Rain = 0
KBI1 162258Z 17010KT 15/04 A3004 RMK A01 T01500039  RH  047%=      5-min Rain = 0
KBI1 162259Z 17012KT 15/04 A3004 RMK A01 T01490039  RH  047%=      5-min Rain = 0
KBI1 162300Z 17012KT 15/04 A3004 RMK A01 T01490039  RH  048%=      5-min Rain = 0
KBI1 162301Z 17013KT 15/04 A3003 RMK A01 T01490039  RH  048%=      5-min Rain = 0
KBI1 162302Z 17013KT 15/04 A3003 RMK A01 T01490038  RH  048%=      5-min Rain = 0
KBI1 162303Z 18013KT 15/04 A3004 RMK A01 T01480038  RH  048%=      5-min Rain = 0
KBI1 162304Z 18011KT 15/04 A3004 RMK A01 T01480038  RH  048%=      5-min Rain = 0
KBI1 162305Z 17010KT 15/04 A3004 RMK A01 T01480038  RH  048%=      5-min Rain = 0
KBI1 162306Z 17009KT 15/04 A3004 RMK A01 T01480039  RH  048%=      5-min Rain = 0
KBI1 162307Z 17013KT 15/04 A3004 RMK A01 T01470038  RH  048%=      5-min Rain = 0
KBI1 162308Z 17011KT 15/04 A3004 RMK A01 T01470037  RH  048%=      5-min Rain = 0
KBI1 162309Z 17010KT 15/04 A3004 RMK A01 T01470038  RH  048%=      5-min Rain = 0
KBI1 162310Z 17010KT 15/04 A3004 RMK A01 T01470038  RH  048%=      5-min Rain = 0
KBI1 162311Z 17010KT 15/04 A3003 RMK A01 T01460038  RH  048%=      5-min Rain = 0
KBI1 162312Z 17008KT 15/04 A3003 RMK A01 T01460038  RH  048%=      5-min Rain = 0
KBI1 162313Z 17011KT 15/04 A3003 RMK A01 T01450038  RH  049%=      5-min Rain = 0
KBI1 162314Z 17009KT 15/04 A3003 RMK A01 T01450038  RH  049%=      5-min Rain = 0
KBI1 162315Z 17009KT 15/04 A3003 RMK A01 T01450039  RH  049%=      5-min Rain = 0
KBI1 162316Z 17010KT 14/04 A3003 RMK A01 T01440038  RH  049%=      5-min Rain = 0
KBI1 162317Z 17011KT 14/04 A3003 RMK A01 T01440038  RH  049%=      5-min Rain = 0
KBI1 162318Z 17011KT 14/04 A3003 RMK A01 T01440038  RH  049%=      5-min Rain = 0
KBI1 162319Z 17010KT 14/04 A3003 RMK A01 T01440037  RH  049%=      5-min Rain = 0
KBI1 162320Z 17010KT 14/04 A3003 RMK A01 T01440038  RH  049%=      5-min Rain = 0
KBI1 162321Z 17011KT 14/04 A3003 RMK A01 T01440038  RH  049%=      5-min Rain = 0
KBI1 162322Z 17012KT 14/04 A3003 RMK A01 T01430037  RH  049%=      5-min Rain = 0
KBI1 162323Z 17013KT 14/04 A3003 RMK A01 T01430038  RH  049%=      5-min Rain = 0
KBI1 162324Z 17013KT 14/04 A3003 RMK A01 T01420037  RH  049%=      5-min Rain = 0
KBI1 162325Z 17013KT 14/04 A3003 RMK A01 T01420037  RH  049%=      5-min Rain = 0
KBI1 162326Z 17011KT 14/04 A3003 RMK A01 T01420037  RH  049%=      5-min Rain = 0
KBI1 162327Z 17013KT 14/04 A3003 RMK A01 T01420037  RH  049%=      5-min Rain = 0
KBI1 162328Z 18011KT 14/04 A3003 RMK A01 T01410036  RH  049%=      5-min Rain = 0
KBI1 162329Z 17010KT 14/04 A3003 RMK A01 T01410037  RH  049%=      5-min Rain = 0
KBI1 162330Z 17011KT 14/04 A3003 RMK A01 T01400037  RH  050%=      5-min Rain = 0
KBI1 162331Z 17012KT 14/04 A3003 RMK A01 T01400037  RH  050%=      5-min Rain = 0
KBI1 162332Z 17013KT 14/04 A3003 RMK A01 T01400037  RH  050%=      5-min Rain = 0
KBI1 162333Z 17012KT 14/04 A3003 RMK A01 T01400037  RH  050%=      5-min Rain = 0
KBI1 162334Z 17010KT 14/04 A3003 RMK A01 T01400037  RH  050%=      5-min Rain = 0
KBI1 162335Z 17011KT 14/04 A3003 RMK A01 T01390037  RH  050%=      5-min Rain = 0
KBI1 162336Z 17011KT 14/04 A3003 RMK A01 T01380037  RH  050%=      5-min Rain = 0
KBI1 162337Z 17010KT 14/04 A3003 RMK A01 T01380037  RH  051%=      5-min Rain = 0
KBI1 162338Z 17011KT 14/04 A3003 RMK A01 T01370037  RH  051%=      5-min Rain = 0
KBI1 162339Z 17011KT 14/04 A3003 RMK A01 T01370037  RH  051%=      5-min Rain = 0
KBI1 162340Z 17010KT 14/04 A3003 RMK A01 T01370037  RH  051%=      5-min Rain = 0
KBI1 162341Z 17012KT 14/04 A3003 RMK A01 T01360037  RH  051%=      5-min Rain = 0
KBI1 162342Z 17010KT 14/04 A3003 RMK A01 T01360037  RH  051%=      5-min Rain = 0
KBI1 162343Z 17012KT 14/04 A3003 RMK A01 T01350037  RH  051%=      5-min Rain = 0
KBI1 162344Z 17011KT 14/04 A3003 RMK A01 T01350037  RH  051%=      5-min Rain = 0
KBI1 162345Z 17010KT 14/04 A3003 RMK A01 T01350037  RH  052%=      5-min Rain = 0
KBI1 162346Z 17011KT 13/04 A3003 RMK A01 T01340037  RH  052%=      5-min Rain = 0
KBI1 162347Z 17011KT 13/04 A3003 RMK A01 T01340037  RH  052%=      5-min Rain = 0
KBI1 162348Z 17010KT 13/04 A3003 RMK A01 T01340037  RH  052%=      5-min Rain = 0
KBI1 162349Z 18011KT 13/04 A3003 RMK A01 T01330037  RH  052%=      5-min Rain = 0
KBI1 162350Z 18010KT 13/04 A3003 RMK A01 T01330037  RH  052%=      5-min Rain = 0
KBI1 162351Z 17010KT 13/04 A3003 RMK A01 T01320037  RH  052%=      5-min Rain = 0
KBI1 162352Z 17011KT 13/04 A3004 RMK A01 T01320037  RH  053%=      5-min Rain = 0
KBI1 162353Z 17011KT 13/04 A3003 RMK A01 T01310037  RH  053%=      5-min Rain = 0
KBI1 162354Z 17010KT 13/04 A3003 RMK A01 T01310037  RH  053%=      5-min Rain = 0
KBI1 162355Z 17010KT 13/04 A3003 RMK A01 T01310037  RH  053%=      5-min Rain = 0
KBI1 162356Z 17010KT 13/04 A3003 RMK A01 T01300037  RH  053%=      5-min Rain = 0
KBI1 162357Z 18009KT 13/04 A3003 RMK A01 T01290037  RH  053%=      5-min Rain = 0
KBI1 162358Z 17008KT 13/04 A3003 RMK A01 T01290037  RH  054%=      5-min Rain = 0
KBI1 162359Z 17009KT 13/04 A3004 RMK A01 T01290037  RH  054%=      5-min Rain = 0
KBI1 170000Z 17009KT 13/04 A3004 RMK A01 T01290037  RH  054%=      5-min Rain = 0
KBI1 170001Z 17007KT 13/04 A3004 RMK A01 T01290037  RH  054%=      5-min Rain = 0
KBI1 170002Z 17009KT 13/04 A3004 RMK A01 T01280037  RH  054%=      5-min Rain = 0
KBI1 170003Z 16009KT 13/04 A3004 RMK A01 T01280037  RH  054%=      5-min Rain = 0
KBI1 170004Z 17009KT 13/04 A3004 RMK A01 T01280037  RH  054%=      5-min Rain = 0
KBI1 170005Z 16009KT 13/04 A3004 RMK A01 T01280037  RH  054%=      5-min Rain = 0
KBI1 170006Z 16010KT 13/04 A3004 RMK A01 T01280037  RH  054%=      5-min Rain = 0
KBI1 170007Z 17009KT 13/04 A3004 RMK A01 T01280037  RH  054%=      5-min Rain = 0
KBI1 170008Z 17008KT 13/04 A3004 RMK A01 T01280037  RH  054%=      5-min Rain = 0
KBI1 170009Z 16008KT 13/04 A3004 RMK A01 T01270037  RH  054%=      5-min Rain = 0
KBI1 170010Z 17009KT 13/04 A3004 RMK A01 T01260037  RH  054%=      5-min Rain = 0
KBI1 170011Z 17008KT 13/04 A3004 RMK A01 T01260037  RH  054%=      5-min Rain = 0
KBI1 170012Z 17007KT 13/04 A3004 RMK A01 T01270037  RH  055%=      5-min Rain = 0
KBI1 170013Z 17007KT 13/04 A3004 RMK A01 T01260037  RH  055%=      5-min Rain = 0
KBI1 170014Z 17008KT 13/04 A3004 RMK A01 T01250037  RH  055%=      5-min Rain = 0
KBI1 170015Z 17007KT 13/04 A3004 RMK A01 T01250037  RH  055%=      5-min Rain = 0
KBI1 170016Z 17006KT 12/04 A3004 RMK A01 T01240037  RH  055%=      5-min Rain = 0
KBI1 170017Z 17007KT 12/04 A3004 RMK A01 T01240037  RH  055%=      5-min Rain = 0
KBI1 170018Z 17008KT 12/04 A3004 RMK A01 T01230037  RH  056%=      5-min Rain = 0
KBI1 170019Z 17007KT 12/04 A3004 RMK A01 T01230037  RH  056%=      5-min Rain = 0
KBI1 170020Z 17007KT 12/04 A3004 RMK A01 T01230037  RH  056%=      5-min Rain = 0
KBI1 170021Z 17007KT 12/04 A3004 RMK A01 T01220037  RH  056%=      5-min Rain = 0
KBI1 170022Z 17008KT 12/04 A3004 RMK A01 T01210037  RH  056%=      5-min Rain = 0
KBI1 170023Z 17008KT 12/04 A3004 RMK A01 T01210037  RH  056%=      5-min Rain = 0
KBI1 170024Z 17007KT 12/04 A3004 RMK A01 T01210037  RH  056%=      5-min Rain = 0
KBI1 170025Z 17007KT 12/04 A3004 RMK A01 T01210037  RH  056%=      5-min Rain = 0
KBI1 170026Z 16008KT 12/04 A3004 RMK A01 T01210037  RH  056%=      5-min Rain = 0
KBI1 170027Z 17007KT 12/04 A3004 RMK A01 T01210037  RH  057%=      5-min Rain = 0
KBI1 170028Z 16007KT 12/04 A3004 RMK A01 T01210037  RH  057%=      5-min Rain = 0
KBI1 170029Z 16007KT 12/04 A3004 RMK A01 T01200037  RH  057%=      5-min Rain = 0
KBI1 170030Z 16007KT 12/04 A3004 RMK A01 T01190037  RH  057%=      5-min Rain = 0
KBI1 170031Z 16007KT 12/04 A3004 RMK A01 T01190038  RH  057%=      5-min Rain = 0
KBI1 170032Z 16007KT 12/04 A3004 RMK A01 T01190037  RH  057%=      5-min Rain = 0
KBI1 170033Z 16007KT 12/04 A3004 RMK A01 T01190037  RH  057%=      5-min Rain = 0
KBI1 170034Z 17007KT 12/04 A3004 RMK A01 T01180037  RH  058%=      5-min Rain = 0
KBI1 170035Z 17007KT 12/04 A3004 RMK A01 T01180037  RH  058%=      5-min Rain = 0
KBI1 170036Z 17007KT 12/04 A3004 RMK A01 T01170037  RH  058%=      5-min Rain = 0
KBI1 170037Z 17008KT 12/04 A3004 RMK A01 T01170037  RH  058%=      5-min Rain = 0
KBI1 170038Z 16007KT 12/04 A3004 RMK A01 T01170037  RH  058%=      5-min Rain = 0
KBI1 170039Z 16007KT 12/04 A3004 RMK A01 T01160037  RH  058%=      5-min Rain = 0
KBI1 170040Z 16008KT 12/04 A3004 RMK A01 T01160037  RH  058%=      5-min Rain = 0
KBI1 170041Z 16008KT 12/04 A3004 RMK A01 T01160037  RH  059%=      5-min Rain = 0
KBI1 170042Z 16008KT 12/04 A3004 RMK A01 T01150037  RH  059%=      5-min Rain = 0
KBI1 170043Z 16007KT 12/04 A3004 RMK A01 T01150037  RH  059%=      5-min Rain = 0
KBI1 170044Z 16007KT 12/04 A3004 RMK A01 T01150037  RH  059%=      5-min Rain = 0
KBI1 170045Z 16007KT 12/04 A3004 RMK A01 T01150037  RH  059%=      5-min Rain = 0
KBI1 170046Z 16007KT 12/04 A3004 RMK A01 T01150037  RH  059%=      5-min Rain = 0
KBI1 170047Z 16007KT 12/04 A3004 RMK A01 T01150037  RH  059%=      5-min Rain = 0
KBI1 170048Z 16007KT 11/04 A3004 RMK A01 T01140037  RH  059%=      5-min Rain = 0
KBI1 170049Z 16008KT 11/04 A3004 RMK A01 T01140037  RH  059%=      5-min Rain = 0
KBI1 170050Z 16007KT 11/04 A3004 RMK A01 T01130037  RH  059%=      5-min Rain = 0
KBI1 170051Z 16007KT 11/04 A3004 RMK A01 T01130037  RH  059%=      5-min Rain = 0
KBI1 170052Z 16007KT 11/04 A3004 RMK A01 T01130037  RH  059%=      5-min Rain = 0
KBI1 170053Z 16007KT 11/04 A3004 RMK A01 T01130037  RH  059%=      5-min Rain = 0
KBI1 170054Z 16007KT 11/04 A3004 RMK A01 T01130037  RH  060%=      5-min Rain = 0
KBI1 170055Z 16007KT 11/04 A3004 RMK A01 T01130037  RH  060%=      5-min Rain = 0
KBI1 170056Z 16008KT 11/04 A3004 RMK A01 T01130037  RH  060%=      5-min Rain = 0
KBI1 170057Z 16007KT 11/04 A3004 RMK A01 T01130037  RH  060%=      5-min Rain = 0
KBI1 170058Z 16008KT 11/04 A3004 RMK A01 T01120037  RH  060%=      5-min Rain = 0
KBI1 170059Z 16008KT 11/04 A3004 RMK A01 T01130037  RH  060%=      5-min Rain = 0
KBI1 170100Z 16007KT 11/04 A3004 RMK A01 T01130037  RH  060%=      5-min Rain = 0
KBI1 170101Z 16009KT 11/04 A3004 RMK A01 T01130037  RH  060%=      5-min Rain = 0
KBI1 170102Z 16009KT 11/04 A3004 RMK A01 T01130037  RH  060%=      5-min Rain = 0
KBI1 170103Z 17009KT 11/04 A3004 RMK A01 T01130037  RH  060%=      5-min Rain = 0
KBI1 170104Z 16009KT 11/04 A3004 RMK A01 T01130038  RH  060%=      5-min Rain = 0
KBI1 170105Z 17008KT 11/04 A3004 RMK A01 T01140038  RH  060%=      5-min Rain = 0
KBI1 170106Z 17010KT 11/04 A3004 RMK A01 T01130038  RH  060%=      5-min Rain = 0
KBI1 170107Z 17010KT 11/04 A3004 RMK A01 T01130038  RH  060%=      5-min Rain = 0
KBI1 170108Z 17010KT 11/04 A3004 RMK A01 T01130038  RH  060%=      5-min Rain = 0
KBI1 170109Z 17008KT 11/04 A3004 RMK A01 T01130038  RH  060%=      5-min Rain = 0
KBI1 170110Z 17009KT 11/04 A3004 RMK A01 T01130038  RH  060%=      5-min Rain = 0
KBI1 170111Z 17009KT 11/04 A3004 RMK A01 T01120038  RH  060%=      5-min Rain = 0
KBI1 170112Z 17009KT 11/04 A3004 RMK A01 T01120038  RH  060%=      5-min Rain = 0
KBI1 170113Z 17010KT 11/04 A3004 RMK A01 T01120038  RH  061%=      5-min Rain = 0
KBI1 170114Z 17009KT 11/04 A3004 RMK A01 T01120038  RH  060%=      5-min Rain = 0
KBI1 170115Z 17010KT 11/04 A3004 RMK A01 T01120038  RH  060%=      5-min Rain = 0
KBI1 170116Z 17010KT 11/04 A3004 RMK A01 T01120038  RH  061%=      5-min Rain = 0
KBI1 170117Z 17009KT 11/04 A3004 RMK A01 T01120038  RH  061%=      5-min Rain = 0
KBI1 170118Z 17010KT 11/04 A3004 RMK A01 T01120038  RH  061%=      5-min Rain = 0
KBI1 170119Z 17010KT 11/04 A3004 RMK A01 T01120039  RH  061%=      5-min Rain = 0
KBI1 170120Z 17011KT 11/04 A3004 RMK A01 T01120039  RH  061%=      5-min Rain = 0
KBI1 170121Z 17009KT 11/04 A3004 RMK A01 T01120039  RH  061%=      5-min Rain = 0
KBI1 170122Z 17010KT 11/04 A3004 RMK A01 T01110038  RH  061%=      5-min Rain = 0
KBI1 170123Z 17009KT 11/04 A3004 RMK A01 T01110039  RH  061%=      5-min Rain = 0
KBI1 170124Z 17010KT 11/04 A3004 RMK A01 T01100038  RH  061%=      5-min Rain = 0
KBI1 170125Z 17010KT 11/04 A3004 RMK A01 T01100039  RH  061%=      5-min Rain = 0
KBI1 170126Z 18010KT 11/04 A3004 RMK A01 T01100039  RH  061%=      5-min Rain = 0
KBI1 170127Z 18009KT 11/04 A3004 RMK A01 T01100039  RH  061%=      5-min Rain = 0
KBI1 170128Z 18011KT 11/04 A3004 RMK A01 T01100039  RH  062%=      5-min Rain = 0
KBI1 170129Z 17011KT 11/04 A3004 RMK A01 T01090038  RH  062%=      5-min Rain = 0
KBI1 170130Z 18011KT 11/04 A3004 RMK A01 T01090038  RH  062%=      5-min Rain = 0
KBI1 170131Z 17010KT 11/04 A3004 RMK A01 T01090039  RH  062%=      5-min Rain = 0
KBI1 170132Z 18011KT 11/04 A3004 RMK A01 T01100039  RH  062%=      5-min Rain = 0
KBI1 170133Z 18010KT 11/04 A3004 RMK A01 T01090039  RH  062%=      5-min Rain = 0
KBI1 170134Z 18012KT 11/04 A3004 RMK A01 T01090039  RH  062%=      5-min Rain = 0
KBI1 170135Z 18011KT 11/04 A3004 RMK A01 T01090039  RH  062%=      5-min Rain = 0
KBI1 170136Z 18011KT 11/04 A3004 RMK A01 T01080039  RH  062%=      5-min Rain = 0
KBI1 170137Z 18011KT 11/04 A3004 RMK A01 T01080039  RH  062%=      5-min Rain = 0
KBI1 170138Z 17011KT 11/04 A3004 RMK A01 T01080039  RH  062%=      5-min Rain = 0
KBI1 170139Z 18011KT 11/04 A3004 RMK A01 T01080039  RH  062%=      5-min Rain = 0
KBI1 170140Z 18010KT 11/04 A3004 RMK A01 T01070039  RH  063%=      5-min Rain = 0
KBI1 170141Z 18011KT 11/04 A3004 RMK A01 T01070039  RH  063%=      5-min Rain = 0
KBI1 170142Z 18010KT 11/04 A3004 RMK A01 T01070039  RH  063%=      5-min Rain = 0
KBI1 170143Z 18010KT 11/04 A3004 RMK A01 T01060039  RH  063%=      5-min Rain = 0
KBI1 170144Z 18012KT 11/04 A3004 RMK A01 T01060039  RH  063%=      5-min Rain = 0
KBI1 170145Z 18010KT 11/04 A3004 RMK A01 T01060039  RH  063%=      5-min Rain = 0
KBI1 170146Z 18011KT 11/04 A3004 RMK A01 T01060039  RH  063%=      5-min Rain = 0
KBI1 170147Z 18011KT 11/04 A3004 RMK A01 T01060039  RH  063%=      5-min Rain = 0
KBI1 170148Z 18011KT 11/04 A3004 RMK A01 T01060038  RH  063%=      5-min Rain = 0
KBI1 170149Z 18011KT 11/04 A3004 RMK A01 T01060038  RH  063%=      5-min Rain = 0
KBI1 170150Z 18011KT 11/04 A3004 RMK A01 T01060039  RH  063%=      5-min Rain = 0
KBI1 170151Z 18011KT 11/04 A3004 RMK A01 T01060039  RH  063%=      5-min Rain = 0
KBI1 170152Z 18012KT 11/04 A3004 RMK A01 T01060039  RH  063%=      5-min Rain = 0
KBI1 170153Z 18011KT 11/04 A3004 RMK A01 T01060039  RH  063%=      5-min Rain = 0
KBI1 170154Z 18011KT 11/04 A3004 RMK A01 T01060039  RH  063%=      5-min Rain = 0
KBI1 170155Z 18011KT 11/04 A3004 RMK A01 T01060039  RH  063%=      5-min Rain = 0
KBI1 170156Z 18011KT 11/04 A3004 RMK A01 T01060039  RH  063%=      5-min Rain = 0
KBI1 170157Z 18011KT 11/04 A3004 RMK A01 T01060039  RH  063%=      5-min Rain = 0
KBI1 170158Z 18011KT 11/04 A3004 RMK A01 T01060038  RH  063%=      5-min Rain = 0
KBI1 170159Z 17010KT 11/04 A3004 RMK A01 T01060039  RH  063%=      5-min Rain = 0
KBI1 170200Z 18010KT 11/04 A3004 RMK A01 T01050039  RH  063%=      5-min Rain = 0
KBI1 170201Z 18009KT 11/04 A3005 RMK A01 T01050038  RH  063%=      5-min Rain = 0
KBI1 170202Z 18011KT 11/04 A3005 RMK A01 T01050039  RH  064%=      5-min Rain = 0
KBI1 170203Z 18010KT 10/04 A3005 RMK A01 T01040039  RH  064%=      5-min Rain = 0
KBI1 170204Z 18011KT 10/04 A3005 RMK A01 T01040039  RH  064%=      5-min Rain = 0
KBI1 170205Z 18010KT 10/04 A3005 RMK A01 T01040039  RH  064%=      5-min Rain = 0
KBI1 170206Z 18011KT 10/04 A3005 RMK A01 T01040038  RH  064%=      5-min Rain = 0
KBI1 170207Z 18010KT 10/04 A3005 RMK A01 T01030038  RH  064%=      5-min Rain = 0
KBI1 170208Z 18011KT 10/04 A3005 RMK A01 T01030038  RH  064%=      5-min Rain = 0
KBI1 170209Z 18010KT 10/04 A3005 RMK A01 T01030038  RH  064%=      5-min Rain = 0
KBI1 170210Z 18011KT 10/04 A3005 RMK A01 T01030038  RH  064%=      5-min Rain = 0
KBI1 170211Z 18011KT 10/04 A3005 RMK A01 T01030039  RH  064%=      5-min Rain = 0
KBI1 170212Z 18010KT 10/04 A3005 RMK A01 T01020038  RH  064%=      5-min Rain = 0
KBI1 170213Z 18010KT 10/04 A3005 RMK A01 T01020039  RH  065%=      5-min Rain = 0
KBI1 170214Z 18011KT 10/04 A3005 RMK A01 T01020039  RH  065%=      5-min Rain = 0
KBI1 170215Z 18011KT 10/04 A3005 RMK A01 T01020039  RH  065%=      5-min Rain = 0
KBI1 170216Z 18010KT 10/04 A3005 RMK A01 T01030039  RH  065%=      5-min Rain = 0
KBI1 170217Z 18010KT 10/04 A3005 RMK A01 T01020038  RH  064%=      5-min Rain = 0
KBI1 170218Z 18011KT 10/04 A3005 RMK A01 T01020038  RH  064%=      5-min Rain = 0
KBI1 170219Z 18011KT 10/04 A3005 RMK A01 T01020038  RH  065%=      5-min Rain = 0
KBI1 170220Z 18010KT 10/04 A3005 RMK A01 T01030039  RH  065%=      5-min Rain = 0
KBI1 170221Z 18011KT 10/04 A3005 RMK A01 T01020038  RH  065%=      5-min Rain = 0
KBI1 170222Z 18011KT 10/04 A3005 RMK A01 T01020039  RH  065%=      5-min Rain = 0
KBI1 170223Z 18011KT 10/04 A3005 RMK A01 T01010038  RH  065%=      5-min Rain = 0
KBI1 170224Z 18010KT 10/04 A3005 RMK A01 T01010038  RH  065%=      5-min Rain = 0
KBI1 170225Z 18011KT 10/04 A3004 RMK A01 T01010039  RH  065%=      5-min Rain = 0
KBI1 170226Z 18010KT 10/04 A3004 RMK A01 T01010039  RH  065%=      5-min Rain = 0
KBI1 170227Z 19010KT 10/04 A3004 RMK A01 T01010039  RH  065%=      5-min Rain = 0
KBI1 170228Z 18011KT 10/04 A3004 RMK A01 T01000038  RH  065%=      5-min Rain = 0
KBI1 170229Z 18011KT 10/04 A3005 RMK A01 T01000038  RH  065%=      5-min Rain = 0
KBI1 170230Z 19010KT 10/04 A3005 RMK A01 T01000038  RH  065%=      5-min Rain = 0
KBI1 170231Z 18010KT 10/04 A3005 RMK A01 T01010039  RH  065%=      5-min Rain = 0
KBI1 170232Z 18010KT 10/04 A3005 RMK A01 T01010039  RH  065%=      5-min Rain = 0
KBI1 170233Z 18010KT 10/04 A3005 RMK A01 T01010039  RH  065%=      5-min Rain = 0
KBI1 170234Z 18010KT 10/04 A3005 RMK A01 T01010039  RH  065%=      5-min Rain = 0
KBI1 170235Z 18011KT 10/04 A3005 RMK A01 T01010039  RH  065%=      5-min Rain = 0
KBI1 170236Z 18010KT 10/04 A3005 RMK A01 T01010039  RH  065%=      5-min Rain = 0
KBI1 170237Z 18010KT 10/04 A3005 RMK A01 T01000038  RH  066%=      5-min Rain = 0
KBI1 170238Z 18010KT 10/04 A3005 RMK A01 T01000038  RH  066%=      5-min Rain = 0
KBI1 170239Z 18010KT 10/04 A3005 RMK A01 T01000038  RH  066%=      5-min Rain = 0
KBI1 170240Z 18009KT 10/04 A3005 RMK A01 T00990038  RH  066%=      5-min Rain = 0
KBI1 170241Z 18009KT 10/04 A3005 RMK A01 T00990038  RH  066%=      5-min Rain = 0
KBI1 170242Z 18009KT 10/04 A3005 RMK A01 T00980038  RH  066%=      5-min Rain = 0
KBI1 170243Z 18009KT 10/04 A3005 RMK A01 T00980039  RH  066%=      5-min Rain = 0
KBI1 170244Z 18010KT 10/04 A3005 RMK A01 T00980038  RH  066%=      5-min Rain = 0
KBI1 170245Z 18009KT 10/04 A3005 RMK A01 T00980039  RH  066%=      5-min Rain = 0
KBI1 170246Z 18008KT 10/04 A3005 RMK A01 T00980038  RH  066%=      5-min Rain = 0
KBI1 170247Z 18009KT 10/04 A3005 RMK A01 T00970038  RH  067%=      5-min Rain = 0
KBI1 170248Z 18009KT 10/04 A3005 RMK A01 T00970039  RH  067%=      5-min Rain = 0
KBI1 170249Z 18009KT 10/04 A3005 RMK A01 T00970039  RH  067%=      5-min Rain = 0
KBI1 170250Z 18009KT 10/04 A3005 RMK A01 T00970039  RH  067%=      5-min Rain = 0
KBI1 170251Z 18008KT 10/04 A3005 RMK A01 T00970038  RH  067%=      5-min Rain = 0
KBI1 170252Z 18009KT 10/04 A3005 RMK A01 T00970038  RH  067%=      5-min Rain = 0
KBI1 170253Z 18009KT 10/04 A3005 RMK A01 T00960038  RH  067%=      5-min Rain = 0
KBI1 170254Z 19009KT 10/04 A3005 RMK A01 T00960038  RH  067%=      5-min Rain = 0
KBI1 170255Z 18009KT 10/04 A3005 RMK A01 T00970038  RH  067%=      5-min Rain = 0
KBI1 170256Z 18010KT 10/04 A3005 RMK A01 T00960038  RH  067%=      5-min Rain = 0
KBI1 170257Z 19009KT 10/04 A3005 RMK A01 T00970039  RH  067%=      5-min Rain = 0
KBI1 170258Z 19009KT 10/04 A3005 RMK A01 T00970038  RH  067%=      5-min Rain = 0
KBI1 170259Z 19009KT 10/04 A3005 RMK A01 T00960038  RH  067%=      5-min Rain = 0
KBI1 170300Z 19009KT 10/04 A3005 RMK A01 T00960039  RH  067%=      5-min Rain = 0
KBI1 170301Z 18010KT 10/04 A3005 RMK A01 T00960039  RH  067%=      5-min Rain = 0
KBI1 170302Z 18010KT 10/04 A3005 RMK A01 T00960039  RH  068%=      5-min Rain = 0
KBI1 170303Z 18009KT 10/04 A3005 RMK A01 T00960039  RH  068%=      5-min Rain = 0
KBI1 170304Z 18010KT 10/04 A3005 RMK A01 T00960039  RH  067%=      5-min Rain = 0
KBI1 170305Z 18010KT 10/04 A3005 RMK A01 T00960039  RH  068%=      5-min Rain = 0
KBI1 170306Z 18009KT 10/04 A3005 RMK A01 T00960039  RH  068%=      5-min Rain = 0
KBI1 170307Z 18009KT 10/04 A3005 RMK A01 T00960039  RH  068%=      5-min Rain = 0
KBI1 170308Z 18009KT 10/04 A3004 RMK A01 T00960039  RH  068%=      5-min Rain = 0
KBI1 170309Z 18010KT 10/04 A3004 RMK A01 T00950039  RH  068%=      5-min Rain = 0
KBI1 170310Z 18009KT 10/04 A3004 RMK A01 T00960039  RH  068%=      5-min Rain = 0
KBI1 170311Z 18009KT 10/04 A3005 RMK A01 T00950039  RH  068%=      5-min Rain = 0
KBI1 170312Z 18009KT 10/04 A3005 RMK A01 T00950039  RH  068%=      5-min Rain = 0
KBI1 170313Z 17009KT 09/04 A3005 RMK A01 T00940039  RH  068%=      5-min Rain = 0
KBI1 170314Z 18010KT 09/04 A3005 RMK A01 T00940039  RH  068%=      5-min Rain = 0
KBI1 170315Z 18009KT 09/04 A3005 RMK A01 T00940039  RH  069%=      5-min Rain = 0
KBI1 170316Z 17009KT 09/04 A3005 RMK A01 T00940039  RH  068%=      5-min Rain = 0
KBI1 170317Z 18009KT 09/04 A3005 RMK A01 T00940039  RH  068%=      5-min Rain = 0
KBI1 170318Z 18009KT 09/04 A3005 RMK A01 T00940039  RH  068%=      5-min Rain = 0
KBI1 170319Z 17008KT 09/04 A3005 RMK A01 T00940039  RH  069%=      5-min Rain = 0
KBI1 170320Z 18008KT 09/04 A3005 RMK A01 T00940039  RH  069%=      5-min Rain = 0
KBI1 170321Z 18008KT 09/04 A3005 RMK A01 T00930039  RH  069%=      5-min Rain = 0
KBI1 170322Z 18008KT 09/04 A3005 RMK A01 T00930039  RH  069%=      5-min Rain = 0
KBI1 170323Z 17008KT 09/04 A3005 RMK A01 T00930039  RH  069%=      5-min Rain = 0
KBI1 170324Z 17008KT 09/04 A3005 RMK A01 T00930039  RH  069%=      5-min Rain = 0
KBI1 170325Z 17008KT 09/04 A3004 RMK A01 T00930039  RH  069%=      5-min Rain = 0
KBI1 170326Z 17008KT 09/04 A3004 RMK A01 T00930039  RH  069%=      5-min Rain = 0
KBI1 170327Z 17009KT 09/04 A3004 RMK A01 T00930039  RH  069%=      5-min Rain = 0
KBI1 170328Z 17008KT 09/04 A3004 RMK A01 T00930039  RH  069%=      5-min Rain = 0
KBI1 170329Z 17008KT 09/04 A3004 RMK A01 T00930039  RH  069%=      5-min Rain = 0
KBI1 170330Z 17009KT 09/04 A3004 RMK A01 T00920039  RH  069%=      5-min Rain = 0
KBI1 170331Z 17008KT 09/04 A3004 RMK A01 T00920039  RH  069%=      5-min Rain = 0
KBI1 170332Z 17009KT 09/04 A3004 RMK A01 T00920039  RH  069%=      5-min Rain = 0
KBI1 170333Z 17008KT 09/04 A3004 RMK A01 T00910039  RH  070%=      5-min Rain = 0
KBI1 170334Z 17008KT 09/04 A3004 RMK A01 T00910039  RH  070%=      5-min Rain = 0
KBI1 170335Z 17009KT 09/04 A3004 RMK A01 T00900039  RH  070%=      5-min Rain = 0
KBI1 170336Z 17009KT 09/04 A3004 RMK A01 T00900039  RH  070%=      5-min Rain = 0
KBI1 170337Z 17009KT 09/04 A3004 RMK A01 T00900039  RH  070%=      5-min Rain = 0
KBI1 170338Z 17009KT 09/04 A3004 RMK A01 T00890039  RH  070%=      5-min Rain = 0
KBI1 170339Z 17010KT 09/04 A3004 RMK A01 T00900039  RH  071%=      5-min Rain = 0
KBI1 170340Z 17009KT 09/04 A3004 RMK A01 T00890038  RH  070%=      5-min Rain = 0
KBI1 170341Z 17009KT 09/04 A3004 RMK A01 T00900039  RH  070%=      5-min Rain = 0
KBI1 170342Z 18009KT 09/04 A3004 RMK A01 T00900039  RH  070%=      5-min Rain = 0
KBI1 170343Z 17009KT 09/04 A3004 RMK A01 T00900039  RH  070%=      5-min Rain = 0
KBI1 170344Z 17009KT 09/04 A3004 RMK A01 T00900039  RH  071%=      5-min Rain = 0
KBI1 170345Z 18009KT 09/04 A3004 RMK A01 T00900039  RH  071%=      5-min Rain = 0
KBI1 170346Z 18009KT 09/04 A3004 RMK A01 T00900039  RH  071%=      5-min Rain = 0
KBI1 170347Z 18010KT 09/04 A3004 RMK A01 T00900039  RH  071%=      5-min Rain = 0
KBI1 170348Z 18009KT 09/04 A3004 RMK A01 T00900040  RH  071%=      5-min Rain = 0
KBI1 170349Z 18010KT 09/04 A3004 RMK A01 T00900040  RH  071%=      5-min Rain = 0
KBI1 170350Z 18010KT 09/04 A3004 RMK A01 T00900040  RH  071%=      5-min Rain = 0
KBI1 170351Z 18009KT 09/04 A3004 RMK A01 T00900040  RH  071%=      5-min Rain = 0
KBI1 170352Z 18008KT 09/04 A3004 RMK A01 T00900039  RH  070%=      5-min Rain = 0
KBI1 170353Z 18010KT 09/04 A3004 RMK A01 T00900039  RH  071%=      5-min Rain = 0
KBI1 170354Z 18010KT 09/04 A3004 RMK A01 T00900040  RH  071%=      5-min Rain = 0
KBI1 170355Z 18010KT 09/04 A3004 RMK A01 T00900039  RH  071%=      5-min Rain = 0
KBI1 170356Z 18009KT 09/04 A3004 RMK A01 T00900040  RH  071%=      5-min Rain = 0
KBI1 170357Z 18009KT 09/04 A3003 RMK A01 T00910040  RH  071%=      5-min Rain = 0
KBI1 170358Z 18009KT 09/04 A3003 RMK A01 T00900040  RH  071%=      5-min Rain = 0
KBI1 170359Z 18009KT 09/04 A3003 RMK A01 T00900040  RH  071%=      5-min Rain = 0
KBI1 170400Z 18009KT 09/04 A3003 RMK A01 T00900040  RH  071%=      5-min Rain = 0
KBI1 170401Z 18010KT 09/04 A3003 RMK A01 T00900040  RH  071%=      5-min Rain = 0
KBI1 170402Z 18010KT 09/04 A3003 RMK A01 T00890040  RH  071%=      5-min Rain = 0
KBI1 170403Z 18009KT 09/04 A3003 RMK A01 T00900040  RH  071%=      5-min Rain = 0
KBI1 170404Z 18010KT 09/04 A3003 RMK A01 T00910040  RH  071%=      5-min Rain = 0
KBI1 170405Z 18009KT 09/04 A3003 RMK A01 T00900040  RH  071%=      5-min Rain = 0
KBI1 170406Z 18009KT 09/04 A3003 RMK A01 T00900040  RH  071%=      5-min Rain = 0
KBI1 170407Z 18011KT 09/04 A3003 RMK A01 T00900040  RH  071%=      5-min Rain = 0
KBI1 170408Z 19010KT 09/04 A3003 RMK A01 T00900040  RH  071%=      5-min Rain = 0
KBI1 170409Z 18010KT 09/04 A3003 RMK A01 T00910040  RH  071%=      5-min Rain = 0
KBI1 170410Z 18010KT 09/04 A3003 RMK A01 T00910040  RH  070%=      5-min Rain = 0
KBI1 170411Z 18009KT 09/04 A3003 RMK A01 T00900040  RH  071%=      5-min Rain = 0
KBI1 170412Z 18010KT 09/04 A3003 RMK A01 T00910040  RH  071%=      5-min Rain = 0
KBI1 170413Z 18010KT 09/04 A3003 RMK A01 T00910040  RH  071%=      5-min Rain = 0
KBI1 170414Z 19009KT 09/04 A3003 RMK A01 T00910040  RH  070%=      5-min Rain = 0
KBI1 170415Z 19010KT 09/04 A3003 RMK A01 T00910040  RH  070%=      5-min Rain = 0
KBI1 170416Z 18009KT 09/04 A3003 RMK A01 T00910040  RH  070%=      5-min Rain = 0
KBI1 170417Z 19009KT 09/04 A3003 RMK A01 T00920040  RH  070%=      5-min Rain = 0
KBI1 170418Z 18010KT 09/04 A3003 RMK A01 T00920040  RH  070%=      5-min Rain = 0
KBI1 170419Z 19010KT 09/04 A3003 RMK A01 T00920040  RH  070%=      5-min Rain = 0
KBI1 170420Z 19008KT 09/04 A3003 RMK A01 T00920040  RH  070%=      5-min Rain = 0
KBI1 170421Z 19009KT 09/04 A3003 RMK A01 T00920040  RH  070%=      5-min Rain = 0
KBI1 170422Z 18008KT 09/04 A3003 RMK A01 T00910040  RH  070%=      5-min Rain = 0
KBI1 170423Z 18008KT 09/04 A3003 RMK A01 T00910040  RH  070%=      5-min Rain = 0
KBI1 170424Z 18009KT 09/04 A3003 RMK A01 T00910040  RH  070%=      5-min Rain = 0
KBI1 170425Z 19009KT 09/04 A3003 RMK A01 T00910041  RH  071%=      5-min Rain = 0
KBI1 170426Z 19009KT 09/04 A3003 RMK A01 T00910040  RH  070%=      5-min Rain = 0
KBI1 170427Z 18009KT 09/04 A3003 RMK A01 T00910040  RH  070%=      5-min Rain = 0
KBI1 170428Z 18009KT 09/04 A3003 RMK A01 T00910040  RH  070%=      5-min Rain = 0
KBI1 170429Z 18009KT 09/04 A3003 RMK A01 T00910040  RH  070%=      5-min Rain = 0
KBI1 170430Z 18009KT 09/04 A3003 RMK A01 T00910040  RH  071%=      5-min Rain = 0
KBI1 170431Z 18009KT 09/04 A3003 RMK A01 T00910041  RH  071%=      5-min Rain = 0
KBI1 170432Z 18009KT 09/04 A3003 RMK A01 T00910041  RH  071%=      5-min Rain = 0
KBI1 170433Z 18010KT 09/04 A3003 RMK A01 T00910041  RH  071%=      5-min Rain = 0
KBI1 170434Z 18010KT 09/04 A3003 RMK A01 T00910041  RH  071%=      5-min Rain = 0
KBI1 170435Z 18009KT 09/04 A3003 RMK A01 T00920041  RH  071%=      5-min Rain = 0
KBI1 170436Z 18008KT 09/04 A3003 RMK A01 T00920041  RH  071%=      5-min Rain = 0
KBI1 170437Z 18009KT 09/04 A3003 RMK A01 T00910041  RH  071%=      5-min Rain = 0
KBI1 170438Z 18010KT 09/04 A3003 RMK A01 T00910041  RH  071%=      5-min Rain = 0
KBI1 170439Z 18009KT 09/04 A3003 RMK A01 T00920041  RH  070%=      5-min Rain = 0
KBI1 170440Z 18011KT 09/04 A3003 RMK A01 T00920041  RH  070%=      5-min Rain = 0
KBI1 170441Z 19010KT 09/04 A3003 RMK A01 T00920041  RH  071%=      5-min Rain = 0
KBI1 170442Z 18009KT 09/04 A3003 RMK A01 T00920041  RH  070%=      5-min Rain = 0
KBI1 170443Z 18009KT 09/04 A3003 RMK A01 T00920041  RH  070%=      5-min Rain = 0
KBI1 170444Z 19010KT 09/04 A3003 RMK A01 T00910041  RH  071%=      5-min Rain = 0
KBI1 170445Z 19010KT 09/04 A3003 RMK A01 T00910041  RH  071%=      5-min Rain = 0
KBI1 170446Z 19010KT 09/04 A3003 RMK A01 T00920041  RH  070%=      5-min Rain = 0
KBI1 170447Z 19012KT 09/04 A3002 RMK A01 T00920041  RH  070%=      5-min Rain = 0
KBI1 170448Z 19009KT 09/04 A3003 RMK A01 T00920041  RH  070%=      5-min Rain = 0
KBI1 170449Z 18009KT 09/04 A3003 RMK A01 T00920041  RH  070%=      5-min Rain = 0
KBI1 170450Z 19010KT 09/04 A3003 RMK A01 T00920041  RH  070%=      5-min Rain = 0
KBI1 170451Z 19009KT 09/04 A3003 RMK A01 T00910041  RH  071%=      5-min Rain = 0
KBI1 170452Z 19009KT 09/04 A3003 RMK A01 T00910041  RH  071%=      5-min Rain = 0
KBI1 170453Z 18009KT 09/04 A3003 RMK A01 T00910040  RH  071%=      5-min Rain = 0
KBI1 170454Z 18008KT 09/04 A3003 RMK A01 T00900040  RH  071%=      5-min Rain = 0
KBI1 170455Z 18008KT 09/04 A3003 RMK A01 T00900040  RH  071%=      5-min Rain = 0
KBI1 170456Z 18009KT 09/04 A3003 RMK A01 T00890040  RH  071%=      5-min Rain = 0
KBI1 170457Z 18008KT 09/04 A3003 RMK A01 T00890040  RH  072%=      5-min Rain = 0
KBI1 170458Z 18009KT 09/04 A3003 RMK A01 T00890040  RH  072%=      5-min Rain = 0
KBI1 170459Z 18008KT 09/04 A3003 RMK A01 T00890041  RH  072%=      5-min Rain = 0
KBI1 170500Z 18009KT 09/04 A3002 RMK A01 T00880040  RH  072%=      5-min Rain = 0
KBI1 170501Z 18009KT 09/04 A3002 RMK A01 T00880040  RH  072%=      5-min Rain = 0
KBI1 170502Z 18008KT 09/04 A3002 RMK A01 T00880040  RH  072%=      5-min Rain = 0
KBI1 170503Z 18009KT 09/04 A3002 RMK A01 T00880040  RH  072%=      5-min Rain = 0
KBI1 170504Z 18008KT 09/04 A3003 RMK A01 T00880040  RH  072%=      5-min Rain = 0
KBI1 170505Z 18007KT 09/04 A3003 RMK A01 T00870040  RH  072%=      5-min Rain = 0
KBI1 170506Z 18009KT 09/04 A3003 RMK A01 T00870040  RH  072%=      5-min Rain = 0
KBI1 170507Z 18009KT 09/04 A3003 RMK A01 T00870040  RH  073%=      5-min Rain = 0
KBI1 170508Z 19009KT 09/04 A3003 RMK A01 T00870040  RH  073%=      5-min Rain = 0
KBI1 170509Z 19009KT 09/04 A3003 RMK A01 T00870040  RH  073%=      5-min Rain = 0
KBI1 170510Z 18008KT 09/04 A3003 RMK A01 T00860040  RH  073%=      5-min Rain = 0
KBI1 170511Z 18008KT 09/04 A3003 RMK A01 T00860040  RH  073%=      5-min Rain = 0
KBI1 170512Z 18008KT 09/04 A3003 RMK A01 T00850039  RH  073%=      5-min Rain = 0
KBI1 170513Z 19008KT 08/04 A3003 RMK A01 T00840039  RH  073%=      5-min Rain = 0
KBI1 170514Z 19009KT 08/04 A3003 RMK A01 T00840039  RH  074%=      5-min Rain = 0
KBI1 170515Z 19009KT 08/04 A3003 RMK A01 T00840039  RH  074%=      5-min Rain = 0
KBI1 170516Z 18009KT 08/04 A3003 RMK A01 T00840040  RH  074%=      5-min Rain = 0
KBI1 170517Z 19009KT 08/04 A3003 RMK A01 T00840040  RH  073%=      5-min Rain = 0
KBI1 170518Z 19009KT 09/04 A3003 RMK A01 T00850040  RH  073%=      5-min Rain = 0
KBI1 170519Z 19010KT 09/04 A3003 RMK A01 T00850040  RH  073%=      5-min Rain = 0
KBI1 170520Z 19009KT 09/04 A3002 RMK A01 T00850040  RH  073%=      5-min Rain = 0
KBI1 170521Z 19009KT 08/04 A3002 RMK A01 T00840039  RH  073%=      5-min Rain = 0
KBI1 170522Z 19010KT 08/04 A3002 RMK A01 T00840039  RH  074%=      5-min Rain = 0
KBI1 170523Z 19010KT 08/04 A3002 RMK A01 T00830039  RH  074%=      5-min Rain = 0
KBI1 170524Z 19009KT 08/04 A3002 RMK A01 T00840040  RH  074%=      5-min Rain = 0
KBI1 170525Z 19010KT 08/04 A3002 RMK A01 T00840040  RH  074%=      5-min Rain = 0
KBI1 170526Z 19010KT 09/04 A3002 RMK A01 T00850040  RH  074%=      5-min Rain = 0
KBI1 170527Z 19010KT 09/04 A3002 RMK A01 T00850040  RH  073%=      5-min Rain = 0
KBI1 170528Z 19009KT 09/04 A3002 RMK A01 T00850040  RH  073%=      5-min Rain = 0
KBI1 170529Z 19011KT 09/04 A3002 RMK A01 T00850040  RH  073%=      5-min Rain = 0
KBI1 170530Z 19010KT 09/04 A3003 RMK A01 T00850040  RH  073%=      5-min Rain = 0
KBI1 170531Z 19010KT 09/04 A3003 RMK A01 T00850040  RH  073%=      5-min Rain = 0
KBI1 170532Z 19010KT 09/04 A3003 RMK A01 T00850040  RH  073%=      5-min Rain = 0
KBI1 170533Z 19010KT 09/04 A3003 RMK A01 T00850040  RH  073%=      5-min Rain = 0
KBI1 170534Z 19010KT 09/04 A3003 RMK A01 T00850040  RH  073%=      5-min Rain = 0
KBI1 170535Z 19010KT 09/04 A3003 RMK A01 T00850040  RH  073%=      5-min Rain = 0
KBI1 170536Z 19010KT 09/04 A3003 RMK A01 T00850040  RH  073%=      5-min Rain = 0
KBI1 170537Z 19010KT 09/04 A3003 RMK A01 T00850039  RH  073%=      5-min Rain = 0
KBI1 170538Z 19010KT 09/04 A3002 RMK A01 T00850040  RH  073%=      5-min Rain = 0
KBI1 170539Z 19010KT 08/04 A3002 RMK A01 T00840039  RH  073%=      5-min Rain = 0
KBI1 170540Z 19009KT 08/04 A3003 RMK A01 T00840040  RH  074%=      5-min Rain = 0
KBI1 170541Z 19010KT 08/04 A3003 RMK A01 T00830039  RH  074%=      5-min Rain = 0
KBI1 170542Z 19009KT 08/04 A3003 RMK A01 T00830039  RH  074%=      5-min Rain = 0
KBI1 170543Z 19011KT 08/04 A3002 RMK A01 T00840039  RH  074%=      5-min Rain = 0
KBI1 170544Z 19011KT 08/04 A3003 RMK A01 T00840040  RH  073%=      5-min Rain = 0
KBI1 170545Z 19011KT 09/04 A3003 RMK A01 T00850039  RH  073%=      5-min Rain = 0
KBI1 170546Z 19010KT 09/04 A3003 RMK A01 T00850039  RH  073%=      5-min Rain = 0
KBI1 170547Z 19010KT 08/04 A3003 RMK A01 T00840039  RH  073%=      5-min Rain = 0
KBI1 170548Z 19010KT 08/04 A3003 RMK A01 T00840039  RH  073%=      5-min Rain = 0
KBI1 170549Z 19011KT 08/04 A3003 RMK A01 T00840039  RH  074%=      5-min Rain = 0
KBI1 170550Z 19010KT 08/04 A3002 RMK A01 T00840040  RH  074%=      5-min Rain = 0
KBI1 170551Z 19011KT 08/04 A3002 RMK A01 T00840039  RH  073%=      5-min Rain = 0
KBI1 170552Z 19010KT 09/04 A3002 RMK A01 T00850039  RH  073%=      5-min Rain = 0
KBI1 170553Z 19011KT 09/04 A3002 RMK A01 T00850039  RH  073%=      5-min Rain = 0
KBI1 170554Z 18010KT 09/04 A3002 RMK A01 T00850039  RH  073%=      5-min Rain = 0
KBI1 170555Z 18010KT 08/04 A3002 RMK A01 T00840039  RH  073%=      5-min Rain = 0
KBI1 170556Z 18010KT 08/04 A3002 RMK A01 T00840039  RH  073%=      5-min Rain = 0
KBI1 170557Z 18010KT 08/04 A3002 RMK A01 T00840039  RH  073%=      5-min Rain = 0
KBI1 170558Z 19010KT 08/04 A3002 RMK A01 T00840039  RH  073%=      5-min Rain = 0
KBI1 170559Z 19010KT 08/04 A3002 RMK A01 T00840039  RH  074%=      5-min Rain = 0

Page generated in 0.0698 seconds.